Latitude: N 50° 09' 49" Longitude: W 05° 11' 53" Elevation: 168m ASL

There are 19 visitors online

Adverts

<- Previous Day | Today | Next Day ->

All Data for 22 October 2017

Time
A - D
Temp
A - D
Dew Point
A - D
Humidity
A - D
Pressure
A - D
Wind
A - D
Wind Dir Gust
A - D
Rain Rate
A - D
Rain Total
00:01 10.4 10.3 99 1013.7 14.5 SW 26.6 0.0 0.0
00:01 10.4 10.3 99 1013.7 14.5 SW 26.6 0.0 0.0
00:02 10.4 10.3 99 1013.7 15.9 WNW 26.6 0.0 0.0
00:04 10.4 10.3 99 1013.8 19.7 SW 26.6 0.0 0.0
00:04 10.4 10.3 99 1013.8 19.7 SW 26.6 0.0 0.0
00:06 10.4 10.3 99 1013.9 22.8 SW 26.6 0.0 0.0
00:07 10.4 10.3 99 1013.7 22.1 SW 22.8 0.0 0.0
00:07 10.4 10.3 99 1013.7 22.1 SW 22.8 0.0 0.0
00:09 10.4 10.3 99 1013.7 11.4 W 22.8 0.0 0.0
00:10 10.4 10.3 99 1013.8 19.0 SW 22.8 0.0 0.0
00:10 10.4 10.3 99 1013.8 19.0 SW 22.8 0.0 0.0
00:12 10.4 10.3 99 1013.9 13.6 WNW 22.8 0.0 0.0
00:13 10.4 10.3 99 1013.8 19.7 SW 22.8 0.0 0.0
00:14 10.4 10.3 99 1013.8 20.6 WNW 26.6 0.0 0.0
00:15 10.4 10.3 99 1013.9 24.4 SW 26.6 0.0 0.0
00:17 10.4 10.3 99 1014.0 17.4 SW 26.6 0.0 0.0
00:18 10.4 10.3 99 1014.1 18.3 SW 26.6 0.0 0.0
00:19 10.4 10.3 99 1014.0 20.6 SW 26.6 0.0 0.0
00:20 10.4 10.3 99 1013.9 19.7 S 26.6 0.0 0.0
00:21 10.4 10.3 99 1014.0 18.3 W 26.6 0.0 0.0
00:22 10.4 10.3 99 1013.9 20.6 SW 26.6 0.0 0.0
00:23 10.4 10.3 99 1013.9 21.3 SW 26.6 0.0 0.0
00:24 10.4 10.3 99 1013.9 22.1 SW 24.4 0.0 0.0
00:25 10.4 10.3 99 1014.1 19.0 SW 24.4 0.0 0.0
00:26 10.4 10.3 99 1014.0 19.7 SW 22.1 0.0 0.0
00:27 10.4 10.3 99 1013.8 19.7 SW 22.1 0.0 0.0
00:28 10.4 10.3 99 1014.0 16.8 NW 22.1 0.0 0.0
00:29 10.4 10.3 99 1014.1 14.5 SW 22.1 0.0 0.0
00:29 10.4 10.3 99 1014.1 14.5 SW 22.1 0.0 0.0
00:30 10.4 10.3 99 1014.0 12.1 WNW 22.1 0.0 0.0
00:32 10.3 10.2 99 1014.0 21.3 SW 22.1 0.0 0.0
00:33 10.3 10.2 99 1013.9 18.3 SW 22.1 0.0 0.0
00:34 10.3 10.2 99 1014.0 19.0 SW 22.1 0.0 0.0
00:35 10.3 10.2 99 1014.0 19.7 NW 21.3 0.0 0.0
00:36 10.3 10.2 99 1013.9 18.3 SW 21.3 0.0 0.0
00:37 10.3 10.2 99 1014.2 18.3 SW 21.3 0.0 0.0
00:38 10.3 10.2 99 1014.2 16.8 SW 21.3 0.0 0.0
00:39 10.3 10.2 99 1014.2 13.0 W 21.3 0.0 0.0
00:40 10.3 10.2 99 1014.1 16.8 NW 22.1 0.0 0.0
00:41 10.3 10.2 99 1014.0 13.0 SW 22.1 0.0 0.0
00:42 10.3 10.2 99 1014.2 15.2 W 22.1 0.0 0.0
00:43 10.3 10.2 99 1014.2 19.0 W 22.1 0.0 0.0
00:44 10.3 10.2 99 1014.2 15.2 SW 22.1 0.0 0.0
00:45 10.3 10.2 99 1014.2 17.4 SW 22.1 0.0 0.0
00:46 10.3 10.2 99 1014.2 17.4 SW 22.1 0.0 0.0
00:47 10.3 10.2 99 1014.2 21.3 WNW 22.1 0.0 0.0
00:48 10.3 10.2 99 1014.2 19.7 SW 22.1 0.0 0.0
00:49 10.3 10.2 99 1014.2 15.9 SW 22.1 0.0 0.0
00:50 10.3 10.2 99 1014.1 20.6 W 22.1 0.0 0.0
00:51 10.3 10.2 99 1014.5 20.6 S 22.1 0.0 0.0
00:52 10.3 10.2 99 1014.4 18.3 W 22.1 0.0 0.0
00:53 10.3 10.2 99 1014.3 17.4 NW 22.1 0.0 0.0
00:54 10.3 10.2 99 1014.3 18.3 SW 22.1 0.0 0.0
00:55 10.3 10.2 99 1014.5 21.3 SW 22.1 0.0 0.0
00:55 10.3 10.2 99 1014.5 21.3 SW 22.1 0.0 0.0
00:56 10.3 10.2 99 1014.4 14.5 SW 21.3 0.0 0.0
00:57 10.4 10.3 99 1014.4 25.9 SW 25.9 0.0 0.0
00:59 10.4 10.3 99 1014.3 18.3 NW 25.9 0.0 0.0
01:00 10.3 10.2 99 1014.4 22.8 SW 25.9 0.0 0.0
01:01 10.3 10.2 99 1014.3 22.8 SW 25.9 0.0 0.0
01:02 10.3 10.2 99 1014.5 19.0 SW 25.9 0.0 0.0
01:03 10.3 10.2 99 1014.3 13.6 SW 25.9 0.0 0.0
01:04 10.3 10.2 99 1014.6 19.7 SW 25.9 0.0 0.0
01:05 10.3 10.2 99 1014.5 21.3 WNW 25.9 0.0 0.0
01:06 10.3 10.2 99 1014.6 15.2 SW 25.9 0.0 0.0
01:07 10.3 10.2 99 1014.5 20.6 W 25.9 0.0 0.0
01:08 10.3 10.2 99 1014.6 20.6 SW 22.8 0.0 0.0
01:08 10.3 10.2 99 1014.6 20.6 SW 22.8 0.0 0.0
01:09 10.3 10.2 99 1014.5 18.3 SW 22.8 0.0 0.0
01:10 10.2 10.1 99 1014.6 23.5 SW 23.5 0.0 0.0
01:12 10.3 10.2 99 1014.5 22.1 W 23.5 0.0 0.0
01:13 10.3 10.2 99 1014.7 24.4 SW 24.4 0.0 0.0
01:14 10.2 10.1 99 1014.6 13.0 W 24.4 0.0 0.0
01:15 10.3 10.0 98 1014.5 22.1 NW 24.4 0.0 0.0
01:16 10.3 10.2 99 1014.7 20.6 SW 24.4 0.0 0.0
01:17 10.2 9.9 98 1014.6 16.8 W 24.4 0.0 0.0
01:18 10.3 10.0 98 1014.6 17.4 WNW 24.4 0.0 0.0
01:19 10.3 10.0 98 1014.7 20.6 W 24.4 0.0 0.0
01:20 10.2 9.9 98 1014.7 14.5 SW 24.4 0.0 0.0
01:21 10.3 10.0 98 1014.7 19.0 NW 24.4 0.0 0.0
01:22 10.3 10.0 98 1014.6 18.3 SW 24.4 0.0 0.0
01:23 10.3 10.0 98 1014.7 19.7 NW 24.4 0.0 0.0
01:24 10.3 10.0 98 1014.6 19.0 SW 22.1 0.0 0.0
01:25 10.3 10.0 98 1014.8 18.3 SW 22.8 0.0 0.0
01:26 10.2 9.9 98 1014.6 13.6 SW 22.8 0.0 0.0
01:27 10.3 10.0 98 1014.5 15.2 SW 22.8 0.0 0.0
01:28 10.3 10.0 98 1014.7 19.0 SW 22.8 0.0 0.0
01:29 10.3 10.0 98 1014.7 18.3 SW 22.8 0.0 0.0
01:30 10.2 9.9 98 1014.7 18.3 W 22.8 0.0 0.0
01:31 10.2 9.9 98 1014.7 15.2 W 22.8 0.0 0.0
01:32 10.2 9.9 98 1014.8 13.6 SW 22.8 0.0 0.0
01:32 10.2 9.9 98 1014.8 13.6 SW 22.8 0.0 0.0
01:33 10.2 9.9 98 1014.7 19.7 SW 22.8 0.0 0.0
01:34 10.2 9.9 98 1014.7 14.5 SW 22.8 0.0 0.0
01:36 10.2 9.9 98 1014.8 14.5 NW 19.7 0.0 0.0
01:37 10.2 9.9 98 1014.8 11.4 S 19.7 0.0 0.0
01:38 10.2 9.9 98 1014.8 12.1 NW 19.7 0.0 0.0
01:39 10.2 9.9 98 1014.7 15.2 NW 19.7 0.0 0.0
01:40 10.2 9.9 98 1015.0 18.3 SW 19.7 0.0 0.0
01:41 10.2 9.9 98 1014.9 14.5 W 19.7 0.0 0.0
01:42 10.2 9.9 98 1015.0 12.1 SW 19.7 0.0 0.0
01:43 10.2 9.9 98 1014.9 13.6 SW 19.7 0.0 0.0
01:44 10.2 9.9 98 1015.0 9.8 NW 18.3 0.0 0.0
01:45 10.2 9.9 98 1015.0 22.1 NW 22.1 0.0 0.0
01:46 10.2 9.9 98 1014.9 16.8 NNW 22.1 0.0 0.0
01:47 10.2 9.9 98 1015.0 19.0 SW 23.5 0.0 0.0
01:48 10.2 9.9 98 1015.0 17.4 SW 23.5 0.0 0.0
01:49 10.2 9.9 98 1015.1 19.0 SW 23.5 0.0 0.0
01:50 10.2 9.9 98 1015.1 20.6 SW 23.5 0.0 0.0
01:51 10.2 9.9 98 1015.2 20.6 NW 23.5 0.0 0.0
01:52 10.2 9.9 98 1015.1 21.3 W 23.5 0.0 0.0
01:53 10.2 10.1 99 1015.2 15.2 SW 23.5 1.5 0.2
01:54 10.2 10.1 99 1015.2 15.2 SW 23.5 2.3 0.3
01:55 10.1 10.0 99 1015.3 19.7 NW 23.5 3.0 0.3
01:56 10.1 10.0 99 1015.1 12.1 NW 23.5 4.5 0.4
01:56 10.1 10.0 99 1015.1 12.1 NW 23.5 4.5 0.4
01:57 10.0 9.9 99 1015.1 17.4 W 23.5 4.5 0.4
01:58 10.0 9.9 99 1015.2 13.0 W 23.5 3.0 0.4
02:00 9.9 9.8 99 1015.1 10.7 SW 21.3 1.5 0.4
02:01 9.9 9.8 99 1015.2 10.7 SW 21.3 0.0 0.4
02:02 9.9 9.8 99 1015.2 10.7 SW 19.7 0.0 0.4
02:02 9.9 9.8 99 1015.2 10.7 SW 19.7 0.0 0.4
02:04 9.9 9.8 99 1015.1 10.7 SW 19.7 0.0 0.4
02:05 9.9 9.8 99 1015.2 10.7 SW 19.7 0.0 0.4
02:06 9.7 9.6 99 1015.2 15.9 W 17.4 0.0 0.4
02:06 9.7 9.6 99 1015.2 15.9 W 17.4 0.0 0.4
02:08 9.7 9.6 99 1015.2 23.5 SW 23.5 0.0 0.4
02:09 9.7 9.6 99 1015.2 15.2 W 23.5 0.0 0.4
02:10 9.6 9.5 99 1015.2 15.2 SW 23.5 0.0 0.4
02:11 9.6 9.5 99 1015.1 17.4 W 23.5 0.0 0.4
02:12 9.6 9.5 99 1015.2 13.6 W 23.5 0.0 0.4
02:13 9.6 9.5 99 1015.1 16.8 W 23.5 0.0 0.4
02:14 9.6 9.5 99 1015.2 12.1 W 23.5 0.0 0.4
02:15 9.6 9.5 99 1015.2 13.6 SW 23.5 0.0 0.4
02:16 9.6 9.5 99 1015.4 15.9 SW 23.5 0.0 0.4
02:17 9.5 9.4 99 1015.3 12.1 W 23.5 0.0 0.4
02:18 9.5 9.4 99 1015.4 14.5 SW 17.4 0.0 0.4
02:19 9.5 9.4 99 1015.4 13.0 W 17.4 0.0 0.4
02:19 9.5 9.4 99 1015.4 13.0 W 17.4 0.0 0.4
02:20 9.5 9.4 99 1015.2 16.8 SW 17.4 0.0 0.4
02:21 9.5 9.4 99 1015.3 19.7 SW 19.7 0.0 0.4
02:23 9.5 9.4 99 1015.6 18.3 SW 19.7 0.0 0.4
02:24 9.5 9.4 99 1015.4 13.0 NW 19.7 0.0 0.4
02:25 9.5 9.4 99 1015.4 14.5 NW 19.7 0.0 0.4
02:26 9.5 9.4 99 1015.4 17.4 SW 19.7 0.0 0.4
02:27 9.5 9.4 99 1015.4 17.4 SW 19.7 0.0 0.4
02:28 9.5 9.4 99 1015.7 18.3 SW 19.7 0.0 0.4
02:29 9.5 9.4 99 1015.7 15.2 SW 19.7 0.0 0.4
02:30 9.5 9.4 99 1015.6 15.9 W 19.7 0.0 0.4
02:31 9.5 9.4 99 1015.6 14.5 SW 19.7 0.0 0.4
02:32 9.5 9.4 99 1015.7 12.1 SW 19.0 0.0 0.4
02:33 9.6 9.5 99 1015.7 14.5 SW 19.0 0.0 0.4
02:34 9.6 9.5 99 1015.5 19.7 NW 19.7 0.0 0.4
02:35 9.6 9.5 99 1015.7 17.4 WNW 19.7 0.0 0.4
02:36 9.6 9.5 99 1015.7 12.1 SW 19.7 0.0 0.4
02:37 9.6 9.5 99 1015.6 13.0 W 19.7 0.0 0.4
02:38 9.6 9.5 99 1015.5 20.6 SW 20.6 0.0 0.4
02:38 9.6 9.5 99 1015.5 20.6 SW 20.6 0.0 0.4
02:39 9.6 9.5 99 1015.6 21.3 NW 21.3 0.0 0.4
02:40 9.6 9.5 99 1015.6 19.0 SW 21.3 0.0 0.4
02:42 9.6 9.5 99 1015.6 15.9 SW 21.3 0.0 0.4
02:43 9.6 9.5 99 1015.6 13.6 SW 21.3 0.0 0.4
02:44 9.6 9.5 99 1015.7 18.3 SW 21.3 0.0 0.4
02:45 9.6 9.5 99 1015.7 13.6 W 21.3 0.0 0.4
02:46 9.6 9.5 99 1015.8 13.0 W 21.3 0.0 0.4
02:47 9.6 9.5 99 1015.7 10.7 SW 21.3 0.0 0.4
02:48 9.6 9.5 99 1015.6 17.4 SW 21.3 0.0 0.4
02:49 9.6 9.5 99 1015.7 18.3 SW 21.3 0.0 0.4
02:50 9.6 9.5 99 1015.7 19.7 SW 19.7 0.0 0.4
02:51 9.6 9.5 99 1015.9 22.8 WNW 22.8 0.0 0.4
02:52 9.6 9.5 99 1015.6 22.8 SW 22.8 0.0 0.4
02:53 9.6 9.5 99 1015.8 19.7 SW 22.8 0.0 0.4
02:54 9.6 9.5 99 1015.6 20.6 WNW 22.8 0.0 0.4
02:55 9.6 9.5 99 1015.7 22.8 SW 22.8 0.0 0.4
02:56 9.6 9.5 99 1015.8 17.4 NW 22.8 0.0 0.4
02:57 9.6 9.5 99 1015.7 19.0 W 22.8 0.0 0.4
02:58 9.7 9.6 99 1015.9 17.4 SW 22.8 0.0 0.4
02:58 9.7 9.6 99 1015.9 17.4 SW 22.8 0.0 0.4
03:00 9.7 9.6 99 1016.1 26.6 W 26.6 0.0 0.4
03:01 9.7 9.6 99 1016.0 26.6 W 26.6 0.0 0.4
03:02 9.7 9.6 99 1016.0 22.1 N 26.6 0.0 0.4
03:03 9.7 9.6 99 1016.0 19.0 SW 26.6 0.0 0.4
03:04 9.8 9.7 99 1016.0 18.3 SW 26.6 0.0 0.4
03:05 9.8 9.7 99 1015.9 22.1 SW 26.6 0.0 0.4
03:05 9.8 9.7 99 1015.9 22.1 SW 26.6 0.0 0.4
03:06 9.8 9.7 99 1016.1 19.0 SW 26.6 0.0 0.4
03:08 9.7 9.6 99 1016.3 16.8 SW 26.6 0.0 0.4
03:09 9.8 9.7 99 1016.1 19.7 SW 26.6 0.0 0.4
03:10 9.8 9.7 99 1016.1 25.1 SW 26.6 0.0 0.4
03:11 9.8 9.7 99 1016.1 22.1 W 25.1 0.0 0.4
03:12 9.8 9.7 99 1016.1 16.8 WNW 25.1 0.0 0.4
03:13 9.8 9.7 99 1016.2 15.9 W 25.1 0.0 0.4
03:14 9.8 9.7 99 1016.2 21.3 SW 25.1 0.0 0.4
03:15 9.8 9.7 99 1016.0 27.3 WNW 27.3 0.0 0.4
03:15 9.8 9.7 99 1016.0 27.3 WNW 27.3 0.0 0.4
03:16 9.8 9.7 99 1016.0 24.4 SW 27.3 0.0 0.4
03:18 9.8 9.5 98 1016.1 19.0 W 27.3 0.0 0.4
03:19 9.8 9.5 98 1016.1 17.4 W 27.3 0.0 0.4
03:20 9.8 9.5 98 1016.2 16.8 SW 27.3 0.0 0.4
03:21 9.8 9.5 98 1016.2 18.3 N 27.3 0.0 0.4
03:22 9.8 9.5 98 1016.1 21.3 WNW 27.3 0.0 0.4
03:23 9.8 9.5 98 1016.2 19.7 W 27.3 0.0 0.4
03:24 9.8 9.5 98 1016.1 19.7 SW 27.3 0.0 0.4
03:25 9.8 9.3 97 1016.3 17.4 SW 24.4 0.0 0.4
03:26 9.8 9.3 97 1016.0 19.0 W 21.3 0.0 0.4
03:27 9.8 9.3 97 1016.2 14.5 S 21.3 0.0 0.4
03:29 9.8 9.3 97 1015.9 15.2 NW 21.3 0.0 0.4
03:30 9.8 9.3 97 1015.9 19.7 WNW 21.3 0.0 0.4
03:31 9.7 9.2 97 1016.1 20.6 SW 21.3 0.0 0.4
03:32 9.7 9.1 96 1016.2 19.7 SW 21.3 0.0 0.4
03:33 9.7 9.1 96 1016.0 14.5 SW 21.3 0.0 0.4
03:34 9.7 9.1 96 1016.0 13.6 NW 21.3 0.0 0.4
03:35 9.7 9.1 96 1016.1 19.0 NW 20.6 0.0 0.4
03:36 9.7 9.1 96 1016.2 13.6 NW 20.6 0.0 0.4
03:37 9.7 9.1 96 1016.1 18.3 W 20.6 0.0 0.4
03:38 9.7 9.1 96 1016.2 19.0 SW 20.6 0.0 0.4
03:39 9.7 9.1 96 1016.1 20.6 W 20.6 0.0 0.4
03:39 9.7 9.1 96 1016.1 20.6 W 20.6 0.0 0.4
03:40 9.7 9.1 96 1016.2 15.2 W 20.6 0.0 0.4
03:41 9.7 9.1 96 1016.2 17.4 SW 20.6 0.0 0.4
03:42 9.7 9.1 96 1016.3 15.2 SW 20.6 0.0 0.4
03:44 9.7 9.1 96 1016.2 16.8 W 20.6 0.0 0.4
03:45 9.7 9.1 96 1016.4 16.8 NW 20.6 0.0 0.4
03:46 9.7 9.1 96 1016.3 25.9 SW 25.9 0.0 0.4
03:47 9.7 9.1 96 1016.2 20.6 W 25.9 0.0 0.4
03:47 9.7 9.1 96 1016.2 20.6 W 25.9 0.0 0.4
03:49 9.6 9.0 96 1016.2 19.0 SW 25.9 0.8 0.4
03:50 9.6 9.0 96 1016.2 16.8 W 25.9 0.8 0.4
03:51 9.5 8.9 96 1016.2 16.8 SW 25.9 0.8 0.4
03:52 9.5 8.9 96 1016.4 13.6 NW 25.9 0.8 0.4
03:52 9.5 8.9 96 1016.4 13.6 NW 25.9 0.8 0.4
03:53 9.4 8.8 96 1016.3 19.7 SW 25.9 0.0 0.4
03:55 9.4 8.8 96 1016.3 16.8 W 25.9 0.0 0.4
03:56 9.3 8.7 96 1016.4 14.5 W 25.9 0.0 0.4
03:57 9.3 8.7 96 1016.4 19.0 W 23.5 0.0 0.4
03:57 9.3 8.7 96 1016.4 19.0 W 23.5 0.0 0.4
03:58 9.3 8.7 96 1016.5 15.2 SW 19.7 0.0 0.4
04:00 9.3 8.7 96 1016.4 16.8 WNW 19.7 0.0 0.4
04:01 9.3 8.7 96 1016.3 16.8 WNW 19.7 0.0 0.4
04:02 9.3 8.7 96 1016.4 11.4 SW 19.7 0.0 0.4
04:03 9.3 8.7 96 1016.3 17.4 W 19.7 0.0 0.4
04:04 9.3 8.7 96 1016.5 13.0 S 19.0 0.0 0.4
04:05 9.3 8.8 97 1016.3 13.6 SW 19.0 0.0 0.4
04:05 9.3 8.8 97 1016.3 13.6 SW 19.0 0.0 0.4
04:06 9.3 8.8 97 1016.3 22.8 SW 22.8 0.0 0.4
04:08 9.3 8.7 96 1016.2 22.1 SW 22.8 0.0 0.4
04:09 9.3 8.7 96 1016.3 16.8 SW 22.8 0.0 0.4
04:10 9.3 8.7 96 1016.5 21.3 SW 22.8 0.0 0.4
04:10 9.3 8.7 96 1016.5 21.3 SW 22.8 0.0 0.4
04:11 9.3 8.7 96 1016.3 15.2 SW 22.8 0.0 0.4
04:12 9.3 8.7 96 1016.5 15.9 NW 22.8 0.0 0.4
04:13 9.3 8.5 95 1016.3 22.8 SW 22.8 0.0 0.4
04:15 9.3 8.5 95 1016.4 21.3 SW 22.8 0.0 0.4
04:16 9.3 8.5 95 1016.4 19.0 W 22.8 0.0 0.4
04:17 9.3 8.5 95 1016.4 18.3 W 22.8 0.0 0.4
04:18 9.3 8.5 95 1016.5 18.3 W 22.8 0.0 0.4
04:19 9.3 8.5 95 1016.5 14.5 WNW 22.8 0.0 0.4
04:20 9.3 8.5 95 1016.6 18.3 W 22.8 0.0 0.4
04:21 9.3 8.5 95 1016.5 19.0 SW 22.8 0.0 0.4
04:22 9.4 8.6 95 1016.6 15.9 NNW 22.8 0.0 0.4
04:23 9.4 8.6 95 1016.4 19.7 W 22.8 0.0 0.4
04:24 9.4 8.6 95 1016.6 20.6 NW 22.1 0.0 0.4
04:25 9.4 8.6 95 1016.5 17.4 NW 22.1 0.0 0.4
04:26 9.4 8.5 94 1016.5 15.2 W 22.1 0.0 0.4
04:26 9.4 8.5 94 1016.5 15.2 W 22.1 0.0 0.4
04:27 9.4 8.5 94 1016.7 17.4 NW 22.1 0.0 0.4
04:28 9.5 8.6 94 1016.7 17.4 W 22.1 0.0 0.4
04:30 9.5 8.6 94 1016.6 16.8 SW 22.1 0.0 0.4
04:31 9.5 8.6 94 1016.7 13.0 SW 22.1 0.0 0.4
04:32 9.5 8.6 94 1016.6 15.9 SW 20.6 0.0 0.4
04:33 9.5 8.6 94 1016.7 19.0 SW 20.6 0.0 0.4
04:34 9.5 8.6 94 1016.7 16.8 SW 20.6 0.0 0.4
04:35 9.5 8.6 94 1016.5 15.2 W 20.6 0.0 0.4
04:36 9.5 8.6 94 1016.7 16.8 SW 19.0 0.0 0.4
04:37 9.6 8.7 94 1016.8 22.1 SW 22.1 0.0 0.4
04:38 9.6 8.7 94 1016.8 19.0 SW 22.1 0.0 0.4
04:39 9.6 8.7 94 1016.6 22.1 W 22.1 0.0 0.4
04:40 9.6 8.5 93 1016.7 17.4 W 22.1 0.0 0.4
04:41 9.6 8.5 93 1016.7 12.1 NW 22.1 0.0 0.4
04:41 9.6 8.5 93 1016.7 12.1 NW 22.1 0.0 0.4
04:42 9.6 8.5 93 1016.7 12.1 NW 22.1 0.0 0.4
04:43 9.6 8.5 93 1016.8 21.3 SW 22.1 0.0 0.4
04:44 9.6 8.5 93 1016.8 13.6 NW 22.1 0.0 0.4
04:46 9.6 8.5 93 1016.8 18.3 NW 22.1 0.0 0.4
04:47 9.6 8.5 93 1016.8 19.7 W 22.1 0.0 0.4
04:48 9.6 8.5 93 1016.8 11.4 NW 22.1 0.0 0.4
04:49 9.5 8.4 93 1016.9 15.2 SW 22.1 0.0 0.4
04:50 9.5 8.4 93 1016.8 11.4 WNW 21.3 0.0 0.4
04:51 9.5 8.4 93 1016.9 8.3 W 21.3 0.0 0.4
04:52 9.5 8.4 93 1016.8 17.4 SW 21.3 0.0 0.4
04:53 9.5 8.4 93 1016.8 19.0 SW 21.3 0.0 0.4
04:54 9.4 8.3 93 1016.8 9.8 W 19.7 0.0 0.4
04:55 9.5 8.4 93 1016.7 13.6 SW 19.7 0.0 0.4
04:56 9.4 8.3 93 1016.8 15.2 NW 19.7 0.0 0.4
04:57 9.4 8.3 93 1016.8 16.8 SW 19.0 0.0 0.4
04:58 9.4 8.3 93 1016.8 10.7 SW 19.0 0.0 0.4
04:59 9.4 8.3 93 1016.9 17.4 W 19.0 0.0 0.4
04:59 9.4 8.3 93 1016.9 17.4 W 19.0 0.0 0.4
05:00 9.4 8.3 93 1016.7 13.0 SW 19.0 0.0 0.4
05:01 9.4 8.3 93 1016.9 13.0 SW 19.0 0.0 0.4
05:02 9.4 8.3 93 1016.7 18.3 SW 19.0 0.0 0.4
05:04 9.4 8.3 93 1016.9 15.9 SW 18.3 0.0 0.4
05:05 9.4 8.3 93 1017.0 15.2 SW 18.3 0.0 0.4
05:06 9.5 8.4 93 1016.8 21.3 SW 21.3 0.0 0.4
05:07 9.5 8.4 93 1017.0 15.2 S 21.3 0.0 0.4
05:07 9.5 8.4 93 1017.0 15.2 S 21.3 0.0 0.4
05:09 9.5 8.4 93 1017.0 17.4 SW 21.3 0.0 0.4
05:10 9.5 8.4 93 1017.0 15.2 SW 21.3 0.0 0.4
05:11 9.5 8.4 93 1017.1 13.0 SW 21.3 0.0 0.4
05:12 9.5 8.4 93 1017.0 13.0 W 21.3 0.0 0.4
05:13 9.5 8.4 93 1017.0 13.6 SW 21.3 0.0 0.4
05:14 9.5 8.4 93 1017.0 9.2 W 21.3 0.0 0.4
05:15 9.6 8.5 93 1017.1 15.9 W 21.3 0.0 0.4
05:16 9.5 8.4 93 1017.0 15.9 SW 20.6 0.0 0.4
05:16 9.5 8.4 93 1017.0 15.9 SW 20.6 0.0 0.4
05:17 9.6 8.5 93 1017.1 15.9 W 20.6 0.0 0.4
05:18 9.6 8.5 93 1017.0 17.4 SW 20.6 0.0 0.4
05:19 9.6 8.5 93 1017.1 17.4 SW 20.6 0.0 0.4
05:20 9.6 8.5 93 1017.2 18.3 SW 20.6 0.0 0.4
05:22 9.6 8.5 93 1017.1 20.6 SW 20.6 0.0 0.4
05:23 9.6 8.7 94 1017.2 16.8 SW 20.6 0.0 0.4
05:24 9.6 8.7 94 1017.2 16.8 SW 20.6 0.0 0.4
05:25 9.6 8.7 94 1017.1 15.9 S 20.6 0.0 0.4
05:26 9.6 8.7 94 1017.2 15.9 SW 20.6 0.0 0.4
05:27 9.6 8.7 94 1017.2 15.9 SW 20.6 0.0 0.4
05:28 9.5 8.6 94 1017.2 15.2 W 20.6 0.0 0.4
05:29 9.5 8.6 94 1017.2 13.6 W 20.6 0.0 0.4
05:30 9.5 8.6 94 1017.3 15.9 NW 20.6 0.0 0.4
05:31 9.4 8.5 94 1017.2 9.8 W 20.6 0.0 0.4
05:32 9.4 8.5 94 1017.3 17.4 NW 19.7 0.0 0.4
05:33 9.4 8.5 94 1017.3 13.0 SW 17.4 0.0 0.4
05:34 9.4 8.6 95 1017.2 12.1 NW 17.4 0.0 0.4
05:35 9.4 8.6 95 1017.2 13.0 N 17.4 0.0 0.4
05:36 9.3 8.5 95 1017.4 15.2 SW 17.4 0.0 0.4
05:37 9.3 8.5 95 1017.2 13.6 W 17.4 0.0 0.4
05:37 9.3 8.5 95 1017.2 13.6 W 17.4 0.0 0.4
05:38 9.3 8.5 95 1017.2 10.7 SW 17.4 0.0 0.4
05:39 9.3 8.5 95 1017.3 12.1 W 17.4 0.0 0.4
05:40 9.3 8.5 95 1017.5 18.3 SW 18.3 0.0 0.4
05:41 9.3 8.5 95 1017.3 19.7 WNW 19.7 0.0 0.4
05:43 9.3 8.7 96 1017.3 15.9 SW 19.7 0.0 0.4
05:44 9.4 8.8 96 1017.4 15.9 SW 19.7 0.0 0.4
05:45 9.3 8.7 96 1017.4 15.2 SW 19.7 0.0 0.4
05:46 9.4 8.6 95 1017.4 13.6 SW 19.7 0.0 0.4
05:47 9.4 8.8 96 1017.4 16.8 SW 19.7 0.0 0.4
05:48 9.4 8.6 95 1017.4 18.3 W 19.7 0.0 0.4
05:49 9.4 8.6 95 1017.6 20.6 W 20.6 0.0 0.4
05:50 9.5 8.7 95 1017.5 19.7 W 20.6 0.0 0.4
05:51 9.5 8.7 95 1017.3 21.3 SW 21.3 0.0 0.4
05:52 9.5 8.7 95 1017.3 26.6 N 26.6 0.0 0.4
05:53 9.5 8.7 95 1017.5 16.8 NNW 26.6 0.0 0.4
05:54 9.5 8.7 95 1017.5 22.1 SW 26.6 0.0 0.4
05:55 9.5 8.7 95 1017.5 18.3 SW 26.6 0.0 0.4
05:56 9.4 8.6 95 1017.7 16.8 W 26.6 0.0 0.4
05:57 9.4 8.6 95 1017.6 19.0 W 26.6 0.0 0.4
05:58 9.4 8.6 95 1017.4 19.0 N 26.6 0.0 0.4
05:58 9.4 8.6 95 1017.4 19.0 N 26.6 0.0 0.4
05:59 9.4 8.6 95 1017.6 14.5 SW 26.6 0.0 0.4
06:00 9.3 8.5 95 1017.4 18.3 SW 26.6 0.0 0.4
06:01 9.3 8.5 95 1017.3 19.0 SW 26.6 0.0 0.4
06:03 9.2 8.6 96 1017.4 21.3 NW 22.1 0.0 0.4
06:04 9.2 8.6 96 1017.4 19.7 W 22.1 0.0 0.4
06:05 9.2 8.6 96 1017.4 19.7 NW 21.3 0.0 0.4
06:06 9.2 8.6 96 1017.4 19.7 SW 21.3 0.0 0.4
06:07 9.2 8.6 96 1017.4 17.4 W 23.5 0.0 0.4
06:09 9.2 8.6 96 1017.4 19.0 SW 23.5 0.0 0.4
06:09 9.2 8.6 96 1017.4 19.0 SW 23.5 0.0 0.4
06:10 9.2 8.6 96 1017.5 19.7 S 23.5 0.0 0.4
06:11 9.2 8.6 96 1017.5 22.8 SW 23.5 0.0 0.4
06:12 9.3 8.7 96 1017.3 16.8 W 23.5 0.0 0.4
06:14 9.3 8.7 96 1017.4 19.7 SW 23.5 0.0 0.4
06:15 9.3 8.7 96 1017.5 16.8 SW 23.5 0.0 0.4
06:16 9.3 8.7 96 1017.4 19.0 SW 23.5 0.0 0.4
06:17 9.3 8.7 96 1017.3 15.9 WNW 22.8 0.0 0.4
06:18 9.3 8.7 96 1017.4 16.8 SW 22.8 0.0 0.4
06:19 9.3 8.7 96 1017.4 15.2 SW 22.8 0.0 0.4
06:20 9.4 8.8 96 1017.4 15.9 NW 22.8 0.0 0.4
06:21 9.4 8.8 96 1017.3 22.1 NW 22.8 0.0 0.4
06:22 9.4 8.8 96 1017.3 19.0 WNW 22.1 0.0 0.4
06:23 9.4 8.8 96 1017.6 13.6 SW 22.1 0.0 0.4
06:24 9.4 8.8 96 1017.6 22.1 SW 22.1 0.0 0.4
06:25 9.4 8.8 96 1017.4 20.6 W 22.1 0.0 0.4
06:26 9.5 8.9 96 1017.4 16.8 W 22.1 0.0 0.4
06:26 9.5 8.9 96 1017.4 16.8 W 22.1 0.0 0.4
06:27 9.5 8.9 96 1017.6 20.6 SW 22.1 0.0 0.4
06:28 9.5 8.9 96 1017.6 15.9 S 22.1 0.0 0.4
06:29 9.5 8.9 96 1017.6 16.8 S 22.1 0.0 0.4
06:31 9.5 8.9 96 1017.5 13.6 W 22.1 0.0 0.4
06:32 9.5 8.9 96 1017.5 15.9 SW 22.1 0.0 0.4
06:33 9.4 8.8 96 1017.6 22.1 SW 22.1 0.0 0.4
06:34 9.4 8.8 96 1017.5 20.6 NW 22.1 0.0 0.4
06:35 9.4 8.8 96 1017.5 20.6 NW 22.1 0.0 0.4
06:36 9.5 8.9 96 1017.5 21.3 SW 22.1 0.0 0.4
06:37 9.4 8.8 96 1017.4 16.8 W 22.1 0.0 0.4
06:38 9.4 8.8 96 1017.5 19.7 NW 22.1 0.0 0.4
06:39 9.5 8.9 96 1017.5 19.0 W 22.1 0.0 0.4
06:40 9.4 8.8 96 1017.6 19.0 SW 22.1 0.0 0.4
06:41 9.4 8.8 96 1017.6 18.3 SW 22.1 0.0 0.4
06:41 9.4 8.8 96 1017.6 18.3 SW 22.1 0.0 0.4
06:42 9.4 8.9 97 1017.7 17.4 W 22.1 0.0 0.4
06:43 9.4 8.9 97 1017.6 15.9 W 21.3 0.0 0.4
06:44 9.5 9.0 97 1017.7 15.2 S 21.3 0.0 0.4
06:46 9.5 9.0 97 1017.7 15.2 W 21.3 0.0 0.4
06:47 9.5 9.0 97 1017.6 14.5 NNW 19.7 0.0 0.4
06:48 9.5 9.0 97 1017.7 15.9 W 19.7 0.0 0.4
06:49 9.5 9.0 97 1017.8 14.5 W 19.0 0.0 0.4
06:50 9.5 9.0 97 1017.6 15.2 W 19.0 0.0 0.4
06:50 9.5 9.0 97 1017.6 15.2 W 19.0 0.0 0.4
06:51 9.5 9.0 97 1017.9 13.6 NNW 18.3 0.0 0.4
06:52 9.5 9.2 98 1017.7 19.0 W 20.6 0.0 0.4
06:53 9.5 9.2 98 1017.8 13.6 SW 20.6 0.0 0.4
06:54 9.5 9.2 98 1017.7 12.1 SW 20.6 0.0 0.4
06:56 9.5 9.2 98 1017.7 10.7 W 20.6 0.0 0.4
06:57 9.5 9.2 98 1017.7 15.9 W 20.6 0.0 0.4
06:58 9.5 9.2 98 1017.8 15.2 SW 20.6 0.0 0.4
06:59 9.5 9.2 98 1017.8 16.8 W 20.6 0.0 0.4
07:00 9.5 9.2 98 1017.8 15.9 W 20.6 0.0 0.4
07:01 9.5 9.2 98 1017.7 15.9 W 20.6 0.0 0.4
07:02 9.6 9.3 98 1017.8 19.7 NW 19.7 0.0 0.4
07:03 9.6 9.3 98 1017.8 14.5 NW 19.7 0.0 0.4
07:04 9.7 9.4 98 1017.7 25.1 W 25.1 0.0 0.4
07:04 9.7 9.4 98 1017.7 25.1 W 25.1 0.0 0.4
07:05 9.7 9.4 98 1017.8 19.7 NNW 25.1 0.0 0.4
07:07 9.7 9.4 98 1017.8 16.8 SW 25.1 0.0 0.4
07:08 9.8 9.5 98 1017.7 21.3 SW 25.1 0.0 0.4
07:08 9.8 9.5 98 1017.7 21.3 SW 25.1 0.0 0.4
07:10 9.8 9.5 98 1017.8 19.0 SW 25.1 0.0 0.4
07:11 9.8 9.5 98 1017.8 19.0 WNW 25.1 0.0 0.4
07:11 9.8 9.5 98 1017.8 19.0 WNW 25.1 0.0 0.4
07:13 9.9 9.6 98 1017.6 18.3 N 25.1 0.0 0.4
07:14 9.9 9.6 98 1017.7 15.9 SW 25.1 0.0 0.4
07:15 9.9 9.6 98 1017.7 15.9 SW 25.1 0.0 0.4
07:16 9.9 9.6 98 1017.9 16.8 SW 21.3 0.0 0.4
07:17 9.9 9.6 98 1017.8 14.5 SW 21.3 0.0 0.4
07:18 9.9 9.6 98 1017.8 13.0 SW 21.3 0.0 0.4
07:19 10.0 9.7 98 1018.0 13.0 S 19.7 0.0 0.4
07:20 9.9 9.6 98 1017.9 18.3 SW 19.7 0.0 0.4
07:21 9.9 9.6 98 1017.8 19.0 SW 19.7 0.0 0.4
07:22 9.9 9.6 98 1017.8 16.8 W 19.7 0.0 0.4
07:23 9.9 9.6 98 1017.9 21.3 NW 21.3 0.0 0.4
07:24 9.9 9.6 98 1018.0 17.4 W 21.3 0.0 0.4
07:25 9.9 9.6 98 1018.2 20.6 NW 21.3 0.0 0.4
07:26 9.9 9.6 98 1018.1 15.9 NW 21.3 0.0 0.4
07:27 9.9 9.6 98 1018.1 16.8 SW 21.3 0.0 0.4
07:28 9.9 9.6 98 1018.1 14.5 SW 21.3 0.0 0.4
07:29 9.9 9.6 98 1018.1 14.5 SW 21.3 0.0 0.4
07:30 9.9 9.6 98 1018.1 13.6 W 21.3 0.0 0.4
07:31 9.9 9.6 98 1018.1 15.9 W 21.3 0.0 0.4
07:32 9.8 9.5 98 1018.2 15.2 SW 21.3 0.0 0.4
07:33 9.8 9.3 97 1018.2 9.2 SW 20.6 0.0 0.4
07:34 9.8 9.3 97 1018.2 13.0 W 20.6 0.0 0.4
07:35 9.8 9.3 97 1018.2 13.6 NW 16.8 0.0 0.4
07:36 9.8 9.5 98 1018.4 10.7 W 16.8 0.0 0.4
07:37 9.8 9.3 97 1018.4 8.3 S 16.8 0.0 0.4
07:38 9.8 9.3 97 1018.3 19.0 W 19.0 0.0 0.4
07:39 9.8 9.3 97 1018.2 22.8 SW 22.8 0.0 0.4
07:40 9.8 9.3 97 1018.4 13.6 SW 22.8 0.0 0.4
07:41 9.7 9.2 97 1018.3 15.9 SW 22.8 0.0 0.4
07:42 9.8 9.3 97 1018.3 15.9 SW 22.8 0.0 0.4
07:43 9.7 9.2 97 1018.3 10.7 NW 22.8 0.0 0.4
07:44 9.7 9.2 97 1018.4 14.5 W 22.8 0.0 0.4
07:45 9.7 9.2 97 1018.4 14.5 SW 22.8 0.0 0.4
07:46 9.7 9.2 97 1018.3 15.9 NW 22.8 0.0 0.4
07:47 9.7 9.2 97 1018.2 12.1 SW 22.8 0.0 0.4
07:48 9.7 9.4 98 1018.4 12.1 W 22.8 0.0 0.4
07:49 9.7 9.4 98 1018.3 17.4 SW 17.4 0.0 0.4
07:50 9.7 9.4 98 1018.3 13.6 W 17.4 0.0 0.4
07:51 9.7 9.4 98 1018.3 13.0 SW 17.4 0.0 0.4
07:52 9.7 9.4 98 1018.4 13.0 NW 17.4 0.0 0.4
07:53 9.7 9.4 98 1018.4 10.7 W 17.4 0.0 0.4
07:54 9.7 9.4 98 1018.3 12.1 SW 17.4 0.0 0.4
07:55 9.7 9.4 98 1018.4 17.4 SW 17.4 0.0 0.4
07:56 9.7 9.4 98 1018.3 13.0 W 17.4 0.0 0.4
07:57 9.7 9.4 98 1018.5 14.5 SW 17.4 0.0 0.4
07:58 9.7 9.4 98 1018.5 13.6 SW 17.4 0.0 0.4
07:58 9.7 9.4 98 1018.5 13.6 SW 17.4 0.0 0.4
07:59 9.7 9.4 98 1018.6 17.4 W 17.4 0.0 0.4
08:00 9.7 9.4 98 1018.4 13.6 W 17.4 0.0 0.4
08:01 9.7 9.4 98 1018.4 13.6 W 17.4 0.0 0.4
08:02 9.7 9.4 98 1018.5 13.6 W 17.4 0.0 0.4
08:03 9.7 9.4 98 1018.5 13.6 W 17.4 0.0 0.4
08:04 9.7 9.4 98 1018.5 20.6 W 20.6 0.0 0.4
08:05 9.7 9.4 98 1018.6 13.6 SW 20.6 0.0 0.4
08:07 9.7 9.4 98 1018.4 12.1 SW 20.6 0.0 0.4
08:07 9.7 9.4 98 1018.4 12.1 SW 20.6 0.0 0.4
08:08 9.7 9.4 98 1018.6 10.7 W 20.6 0.0 0.4
08:10 9.8 9.5 98 1018.5 14.5 SW 20.6 0.0 0.4
08:10 9.8 9.5 98 1018.5 14.5 SW 20.6 0.0 0.4
08:11 9.8 9.5 98 1018.7 16.8 NW 22.1 0.0 0.4
08:12 9.8 9.5 98 1018.5 13.0 W 22.1 0.0 0.4
08:13 9.8 9.5 98 1018.7 15.2 W 22.1 0.0 0.4
08:14 9.8 9.5 98 1018.7 13.6 W 22.1 0.0 0.4
08:15 9.8 9.5 98 1018.6 14.5 SW 22.1 0.0 0.4
08:16 9.8 9.5 98 1018.7 11.4 W 22.1 0.0 0.4
08:17 9.8 9.3 97 1018.7 10.7 NW 22.1 0.0 0.4
08:18 9.8 9.3 97 1018.7 15.2 W 22.1 0.0 0.4
08:20 9.8 9.3 97 1018.5 13.0 SW 22.1 0.0 0.4
08:21 9.8 9.3 97 1018.6 14.5 SW 19.0 0.0 0.4
08:22 9.8 9.3 97 1018.6 13.0 SW 16.8 0.0 0.4
08:23 9.8 9.3 97 1018.5 15.9 SW 15.9 0.0 0.4
08:24 9.8 9.3 97 1018.5 14.5 NW 15.9 0.0 0.4
08:25 9.8 9.3 97 1018.5 15.9 SW 15.9 0.0 0.4
08:26 9.8 9.3 97 1018.5 17.4 WNW 17.4 0.0 0.4
08:27 9.8 9.3 97 1018.6 16.8 SW 17.4 0.0 0.4
08:28 9.8 9.3 97 1018.5 13.0 W 17.4 0.0 0.4
08:29 9.8 9.3 97 1018.7 11.4 W 17.4 0.0 0.4
08:30 9.8 9.3 97 1018.7 15.2 SW 17.4 0.0 0.4
08:31 9.9 9.4 97 1018.7 19.0 WNW 19.0 0.0 0.4
08:32 9.8 9.3 97 1018.7 16.8 SW 19.0 0.0 0.4
08:33 9.9 9.4 97 1018.8 15.2 W 19.0 0.0 0.4
08:34 9.9 9.3 96 1018.8 16.8 W 19.0 0.0 0.4
08:35 9.9 9.4 97 1018.7 19.7 W 19.7 0.0 0.4
08:36 9.9 9.3 96 1018.7 10.7 NW 19.7 0.0 0.4
08:37 9.9 9.3 96 1018.7 14.5 WNW 19.7 0.0 0.4
08:38 9.9 9.3 96 1018.8 11.4 NW 19.7 0.0 0.4
08:39 10.0 9.4 96 1018.9 13.6 NW 19.7 0.0 0.4
08:40 10.0 9.4 96 1018.8 15.9 N 19.7 0.0 0.4
08:41 10.0 9.4 96 1019.0 15.2 SW 19.7 0.0 0.4
08:42 10.0 9.4 96 1018.9 19.0 W 19.7 0.0 0.4
08:43 10.0 9.4 96 1018.9 15.2 SW 19.7 0.0 0.4
08:44 10.0 9.4 96 1019.2 11.4 W 19.7 0.0 0.4
08:45 10.1 9.5 96 1018.9 17.4 W 19.0 0.0 0.4
08:46 10.1 9.5 96 1019.0 15.9 SW 19.0 0.0 0.4
08:47 10.1 9.5 96 1018.9 13.6 W 19.0 0.0 0.4
08:47 10.1 9.5 96 1018.9 13.6 W 19.0 0.0 0.4
08:48 10.1 9.5 96 1019.0 12.1 W 19.0 0.0 0.4
08:49 10.1 9.5 96 1019.1 10.7 W 19.0 0.0 0.4
08:50 10.1 9.5 96 1019.1 11.4 SW 19.0 0.0 0.4
08:51 10.2 9.6 96 1019.1 14.5 SW 19.0 0.0 0.4
08:52 10.2 9.6 96 1019.1 13.6 W 19.0 0.0 0.4
08:53 10.2 9.6 96 1019.1 19.7 W 19.7 0.0 0.4
08:54 10.2 9.6 96 1019.2 15.9 W 19.7 0.0 0.4
08:55 10.2 9.6 96 1019.1 12.1 W 19.7 0.0 0.4
08:56 10.2 9.6 96 1019.1 16.8 NW 19.7 0.0 0.4
08:58 10.2 9.6 96 1019.2 13.6 SW 19.7 0.0 0.4
08:59 10.3 9.7 96 1019.1 14.5 SW 19.7 0.0 0.4
09:00 10.3 9.7 96 1019.2 13.6 SW 19.7 0.0 0.4
09:01 10.3 9.7 96 1019.2 13.6 SW 19.7 0.0 0.4
09:02 10.3 9.7 96 1019.2 17.4 SW 19.7 0.0 0.4
09:03 10.4 9.9 97 1019.0 16.8 W 19.7 0.0 0.4
09:04 10.4 9.9 97 1019.2 16.8 W 17.4 0.0 0.4
09:05 10.4 9.9 97 1019.2 14.5 SW 17.4 0.0 0.4
09:06 10.4 9.9 97 1019.2 12.1 SW 17.4 0.0 0.4
09:06 10.4 9.9 97 1019.2 12.1 SW 17.4 0.0 0.4
09:07 10.4 9.9 97 1019.2 14.5 SW 17.4 0.0 0.4
09:09 10.5 10.0 97 1019.3 15.9 SW 17.4 0.0 0.4
09:09 10.5 10.0 97 1019.3 15.9 SW 17.4 0.0 0.4
09:10 10.4 9.9 97 1019.2 15.2 WNW 17.4 0.0 0.4
09:12 10.5 10.0 97 1019.3 15.9 NW 16.8 0.0 0.4
09:13 10.5 10.0 97 1019.2 13.6 W 16.8 0.0 0.4
09:14 10.5 10.0 97 1019.2 13.0 W 16.8 0.0 0.4
09:15 10.5 10.0 97 1019.3 15.2 SW 16.8 0.0 0.4
09:16 10.5 10.0 97 1019.2 13.6 W 16.8 0.0 0.4
09:17 10.6 10.1 97 1019.2 16.8 SW 16.8 0.0 0.4
09:18 10.6 10.1 97 1019.2 10.7 N 16.8 0.0 0.4
09:19 10.6 10.1 97 1019.2 12.1 SW 16.8 0.0 0.4
09:20 10.6 10.1 97 1019.3 10.7 SW 16.8 0.0 0.4
09:21 10.6 10.1 97 1019.4 9.8 SW 16.8 0.0 0.4
09:22 10.6 10.1 97 1019.2 15.2 W 16.8 0.0 0.4
09:22 10.6 10.1 97 1019.2 15.2 W 16.8 0.0 0.4
09:23 10.7 10.4 98 1019.3 13.0 NW 16.8 0.0 0.4
09:24 10.7 10.4 98 1019.2 13.0 W 16.8 0.0 0.4
09:25 10.7 10.4 98 1019.4 15.2 W 16.8 0.0 0.4
09:26 10.7 10.4 98 1019.3 15.2 SW 16.8 0.0 0.4
09:27 10.8 10.5 98 1019.4 21.3 SW 21.3 0.0 0.4
09:28 10.8 10.5 98 1019.4 18.3 NW 21.3 0.0 0.4
09:29 10.8 10.5 98 1019.3 11.4 W 21.3 0.0 0.4
09:30 10.8 10.5 98 1019.3 13.0 SW 21.3 0.0 0.4
09:31 10.8 10.5 98 1019.5 16.8 N 21.3 0.0 0.4
09:32 10.8 10.5 98 1019.4 11.4 SW 21.3 0.0 0.4
09:34 10.8 10.5 98 1019.4 13.0 SW 21.3 0.0 0.4
09:35 10.8 10.5 98 1019.2 15.2 NNW 21.3 0.0 0.4
09:36 10.8 10.5 98 1019.4 20.6 SW 21.3 0.0 0.4
09:37 10.8 10.7 99 1019.4 14.5 S 21.3 0.0 0.4
09:38 10.9 10.8 99 1019.5 16.8 SW 20.6 0.0 0.4
09:39 10.9 10.8 99 1019.6 14.5 SW 20.6 0.0 0.4
09:40 10.9 10.8 99 1019.3 20.6 SW 20.6 0.0 0.4
09:41 10.9 10.8 99 1019.4 19.0 W 20.6 0.0 0.4
09:42 10.9 10.8 99 1019.5 13.6 SW 20.6 0.0 0.4
09:43 10.9 10.8 99 1019.5 15.9 NW 20.6 0.0 0.4
09:44 10.9 10.8 99 1019.6 13.6 W 20.6 0.0 0.4
09:45 10.8 10.7 99 1019.6 10.7 W 20.6 0.0 0.4
09:46 10.8 10.7 99 1019.7 13.0 SW 20.6 0.0 0.4
09:47 10.8 10.7 99 1019.6 14.5 SW 20.6 0.0 0.4
09:48 10.7 10.6 99 1019.7 15.9 SW 20.6 0.0 0.4
09:49 10.7 10.6 99 1019.7 13.0 SW 20.6 0.0 0.4
09:50 10.7 10.6 99 1019.7 16.8 W 20.6 0.0 0.4
09:51 10.7 10.6 99 1019.7 12.1 W 20.6 0.0 0.4
09:52 10.7 10.6 99 1019.8 14.5 SW 20.6 0.0 0.4
09:53 10.7 10.6 99 1019.7 13.6 W 20.6 0.0 0.4
09:54 10.8 10.7 99 1019.6 9.8 SW 20.6 0.0 0.4
09:55 10.8 10.7 99 1019.6 9.8 SW 20.6 0.0 0.4
09:56 10.8 10.7 99 1019.5 15.2 W 20.6 0.0 0.4
09:57 10.8 10.7 99 1019.6 16.8 NW 20.6 0.0 0.4
09:58 10.8 10.7 99 1019.7 18.3 SW 20.6 0.0 0.4
09:59 10.8 10.7 99 1019.6 18.3 SW 20.6 0.0 0.4
10:00 10.8 10.7 99 1019.6 17.4 SW 20.6 0.0 0.4
10:01 10.8 10.7 99 1019.6 17.4 SW 18.3 0.0 0.4
10:02 10.8 10.7 99 1019.6 17.4 SW 18.3 0.0 0.4
10:03 10.8 10.7 99 1019.6 17.4 SW 18.3 0.0 0.4
10:04 10.8 10.7 99 1019.6 17.4 SW 18.3 0.0 0.4
10:05 10.9 10.8 99 1019.6 14.5 SW 18.3 0.0 0.4
10:07 10.9 10.8 99 1019.9 11.4 SW 18.3 0.0 0.4
10:08 11.0 10.9 99 1019.6 19.0 NW 19.0 0.0 0.4
10:08 11.0 10.9 99 1019.6 19.0 NW 19.0 0.0 0.4
10:09 11.0 10.9 99 1019.7 14.5 W 19.0 0.0 0.4
10:11 11.1 11.0 99 1019.6 15.9 SW 19.0 0.0 0.4
10:11 11.1 11.0 99 1019.6 15.9 SW 19.0 0.0 0.4
10:12 11.2 11.1 99 1019.5 20.6 SW 20.6 0.0 0.4
10:13 11.2 11.1 99 1019.5 14.5 SW 20.6 0.0 0.4
10:14 11.2 11.1 99 1019.6 22.1 SW 22.1 0.0 0.4
10:15 11.2 11.1 99 1019.6 16.8 WNW 22.1 0.0 0.4
10:16 11.3 11.2 99 1019.6 12.1 W 22.1 0.0 0.4
10:17 11.3 11.2 99 1019.7 13.0 W 22.1 0.0 0.4
10:19 11.4 11.3 99 1019.6 16.8 W 22.1 0.0 0.4
10:20 11.4 11.3 99 1019.6 15.9 SW 22.1 0.0 0.4
10:21 11.4 11.3 99 1019.7 16.8 SW 22.1 0.0 0.4
10:22 11.4 11.3 99 1019.9 13.6 SW 22.1 0.0 0.5
10:23 11.4 11.3 99 1019.9 16.8 SW 22.1 0.8 0.5
10:24 11.4 11.3 99 1019.6 21.3 S 22.1 0.8 0.5
10:25 11.4 11.3 99 1019.7 22.1 NW 22.1 0.8 0.5
10:26 11.3 11.2 99 1020.0 13.0 SW 22.1 0.8 0.5
10:27 11.3 11.2 99 1020.0 13.0 SW 22.1 0.8 0.5
10:28 11.3 11.2 99 1020.0 16.8 SW 22.1 0.0 0.5
10:29 11.3 11.2 99 1020.1 11.4 SW 22.1 0.0 0.5
10:30 11.2 11.1 99 1020.2 14.5 SW 22.1 0.0 0.5
10:31 11.2 11.1 99 1020.1 13.0 NW 22.1 0.0 0.5
10:32 11.1 11.0 99 1020.1 20.6 N 22.1 0.0 0.5
10:33 11.1 11.0 99 1020.2 19.0 SW 22.1 0.0 0.5
10:34 11.0 10.9 99 1019.9 13.0 W 22.1 0.0 0.5
10:35 11.0 10.9 99 1019.9 13.0 W 22.1 0.0 0.5
10:36 11.0 10.9 99 1020.2 15.2 NW 20.6 0.0 0.5
10:37 11.0 10.9 99 1020.2 14.5 NW 20.6 0.0 0.5
10:38 10.9 10.8 99 1020.2 9.8 W 20.6 0.0 0.5
10:39 10.9 10.8 99 1020.2 15.2 W 20.6 0.0 0.5
10:40 10.9 10.8 99 1020.1 13.0 W 20.6 0.0 0.5
10:41 10.8 10.7 99 1020.2 12.1 SW 20.6 0.8 0.6
10:42 10.8 10.7 99 1020.1 11.4 W 20.6 0.8 0.6
10:43 10.8 10.7 99 1020.1 13.0 W 16.8 0.8 0.6
10:44 10.7 10.6 99 1020.2 13.0 W 15.2 0.8 0.6
10:45 10.7 10.6 99 1020.0 13.6 SW 15.2 0.8 0.6
10:46 10.7 10.6 99 1020.1 11.4 W 15.2 0.0 0.6
10:47 10.7 10.6 99 1020.1 11.4 S 15.2 0.0 0.6
10:48 10.7 10.6 99 1020.1 9.8 W 15.2 0.0 0.6
10:49 10.7 10.6 99 1020.0 19.0 W 19.0 0.0 0.6
10:50 10.7 10.6 99 1020.0 12.1 W 19.0 0.0 0.6
10:50 10.7 10.6 99 1020.0 12.1 W 19.0 0.0 0.6
10:51 10.7 10.6 99 1020.0 14.5 W 19.0 0.0 0.6
10:52 10.8 10.7 99 1020.0 13.6 SW 19.0 0.0 0.6
10:53 10.8 10.7 99 1020.1 13.0 NW 19.0 0.0 0.6
10:54 10.8 10.7 99 1020.1 9.2 SW 19.0 0.0 0.6
10:55 10.8 10.7 99 1020.0 10.7 W 19.0 0.0 0.6
10:56 10.8 10.7 99 1020.1 11.4 NNW 19.0 0.0 0.6
10:57 10.8 10.7 99 1020.0 15.9 SW 19.0 0.0 0.6
10:58 10.8 10.7 99 1020.1 14.5 SW 19.0 0.0 0.6
10:59 10.8 10.7 99 1020.1 13.0 W 19.0 0.0 0.6
11:00 10.9 10.8 99 1020.0 9.8 SW 15.9 0.0 0.6
11:02 11.1 11.0 99 1020.1 17.4 SW 17.4 0.0 0.6
11:03 11.2 11.1 99 1020.1 15.9 W 17.4 0.0 0.6
11:04 11.3 11.2 99 1020.2 13.6 SW 17.4 0.0 0.6
11:05 11.4 11.3 99 1020.1 14.5 SW 17.4 0.0 0.6
11:06 11.5 11.4 99 1019.9 16.8 SW 17.4 0.0 0.6
11:07 11.6 11.5 99 1020.1 18.3 W 18.3 0.0 0.6
11:07 11.6 11.5 99 1020.1 18.3 W 18.3 0.0 0.6
11:09 11.6 11.5 99 1020.2 21.3 SW 21.3 0.0 0.6
11:10 11.7 11.6 99 1020.1 19.7 WNW 21.3 0.0 0.6
11:10 11.7 11.6 99 1020.1 19.7 WNW 21.3 0.0 0.6
11:11 11.7 11.6 99 1020.2 21.3 SW 21.3 0.0 0.6
11:13 11.6 11.5 99 1020.3 17.4 SW 21.3 0.0 0.6
11:14 11.6 11.5 99 1020.2 17.4 NW 22.8 0.0 0.6
11:15 11.6 11.5 99 1020.3 19.7 W 22.8 0.0 0.6
11:16 11.6 11.5 99 1020.3 15.9 NW 22.8 0.0 0.6
11:16 11.6 11.5 99 1020.3 15.9 NW 22.8 0.0 0.6
11:17 11.6 11.5 99 1020.1 16.8 SW 22.8 0.0 0.6
11:18 11.6 11.5 99 1020.2 18.3 SW 22.8 0.0 0.6
11:19 11.7 11.6 99 1020.3 17.4 SW 22.8 0.0 0.6
11:20 11.7 11.6 99 1020.2 16.8 SW 22.8 0.0 0.6
11:21 11.7 11.6 99 1020.3 12.1 W 22.8 0.0 0.6
11:22 11.7 11.6 99 1020.2 17.4 W 22.8 0.0 0.6
11:24 11.8 11.7 99 1020.5 14.5 W 20.6 0.0 0.6
11:25 11.8 11.7 99 1020.3 21.3 NW 21.3 0.0 0.6
11:26 11.8 11.7 99 1020.5 15.9 WNW 21.3 0.0 0.6
11:27 11.8 11.7 99 1020.5 19.0 WNW 21.3 0.0 0.6
11:28 11.8 11.7 99 1020.3 12.1 W 21.3 0.0 0.6
11:29 11.8 11.7 99 1020.4 19.0 W 21.3 0.0 0.6
11:30 11.8 11.7 99 1020.3 20.6 SW 21.3 0.0 0.6
11:31 11.8 11.7 99 1020.5 19.7 SW 21.3 0.0 0.6
11:32 11.8 11.7 99 1020.4 22.8 SW 22.8 0.0 0.6
11:33 11.8 11.7 99 1020.3 18.3 SW 22.8 0.0 0.6
11:34 11.9 11.8 99 1020.4 15.2 SW 22.8 0.0 0.6
11:35 11.9 11.8 99 1020.5 13.0 W 22.8 0.0 0.6
11:36 12.0 11.9 99 1020.4 13.0 WNW 22.8 0.0 0.6
11:37 12.0 11.9 99 1020.4 19.0 SW 22.8 0.0 0.6
11:38 12.0 11.9 99 1020.4 20.6 SW 22.8 0.0 0.6
11:39 12.0 11.9 99 1020.5 18.3 W 22.8 0.0 0.6
11:40 12.0 11.7 98 1020.4 19.0 W 22.8 0.0 0.6
11:41 12.0 11.7 98 1020.3 12.1 W 22.8 0.0 0.6
11:42 12.1 12.0 99 1020.6 11.4 SW 20.6 0.0 0.6
11:43 12.1 12.0 99 1020.4 16.8 W 20.6 0.0 0.6
11:44 12.2 11.9 98 1020.4 11.4 W 20.6 0.0 0.6
11:44 12.2 11.9 98 1020.4 11.4 W 20.6 0.0 0.6
11:45 12.2 11.9 98 1020.4 15.2 W 20.6 0.0 0.6
11:46 12.2 11.9 98 1020.4 13.6 NW 20.6 0.0 0.6
11:47 12.1 11.8 98 1020.5 13.6 SW 20.6 0.0 0.6
11:48 12.1 11.8 98 1020.6 9.8 SW 19.7 0.0 0.6
11:49 12.1 11.8 98 1020.6 10.7 SW 19.0 0.0 0.6
11:50 12.1 11.8 98 1020.3 13.6 NW 19.0 0.0 0.6
11:51 12.1 11.8 98 1020.4 12.1 SW 16.8 0.0 0.6
11:52 12.2 11.9 98 1020.4 14.5 W 16.8 0.0 0.6
11:53 12.2 11.9 98 1020.5 13.6 SW 16.8 0.0 0.6
11:54 12.3 12.0 98 1020.5 13.6 W 15.2 0.0 0.6
11:56 12.3 12.0 98 1020.5 19.0 WNW 21.3 0.0 0.6
11:57 12.3 12.0 98 1020.5 17.4 SW 21.3 0.0 0.6
11:58 12.4 11.9 97 1020.5 19.0 SW 21.3 0.0 0.6
11:59 12.4 11.9 97 1020.6 13.6 NW 21.3 0.0 0.6
12:00 12.4 11.9 97 1020.6 15.9 W 21.3 0.0 0.6
12:01 12.4 11.9 97 1020.6 15.9 W 21.3 0.0 0.6
12:02 12.6 12.1 97 1020.6 20.6 NW 21.3 0.0 0.6
12:03 12.7 12.1 96 1020.7 18.3 SW 21.3 0.0 0.6
12:04 12.7 12.1 96 1020.7 25.1 SW 25.1 0.0 0.6
12:05 12.8 12.0 95 1020.8 16.8 S 25.1 0.0 0.6
12:05 12.8 12.0 95 1020.8 16.8 S 25.1 0.0 0.6
12:07 12.9 12.1 95 1020.8 16.8 W 25.1 0.0 0.6
12:08 12.9 12.1 95 1020.8 18.3 SW 25.1 0.0 0.6
12:08 12.9 12.1 95 1020.8 18.3 SW 25.1 0.0 0.6
12:10 12.9 12.1 95 1020.8 15.2 W 25.1 0.0 0.6
12:11 12.9 12.0 94 1021.0 19.0 SW 25.1 0.0 0.6
12:11 12.9 12.0 94 1021.0 19.0 SW 25.1 0.0 0.6
12:12 12.8 11.9 94 1020.8 20.6 SW 25.1 0.0 0.6
12:14 12.8 11.9 94 1020.9 22.8 NW 25.1 0.0 0.6
12:15 12.7 11.6 93 1020.8 22.1 SW 22.8 0.0 0.6
12:16 12.7 11.6 93 1020.7 19.7 N 22.8 0.0 0.6
12:17 12.7 11.6 93 1020.9 20.6 SW 22.8 0.0 0.6
12:18 12.8 11.7 93 1020.8 22.8 SW 22.8 0.0 0.6
12:19 12.8 11.7 93 1020.8 18.3 W 22.8 0.0 0.6
12:20 12.8 11.7 93 1020.8 14.5 W 22.8 0.0 0.6
12:21 12.9 11.8 93 1020.9 19.0 W 22.8 0.0 0.6
12:22 13.0 11.9 93 1021.0 15.2 NNW 22.8 0.0 0.6
12:23 13.0 11.9 93 1021.0 18.3 SW 22.8 0.0 0.6
12:24 13.1 12.0 93 1020.6 21.3 SW 22.8 0.0 0.6
12:25 13.1 12.0 93 1020.9 22.8 SW 22.8 0.0 0.6
12:26 13.0 11.9 93 1020.9 19.7 SW 22.8 0.0 0.6
12:27 13.0 11.7 92 1020.7 19.7 NW 22.8 0.0 0.6
12:28 13.0 11.7 92 1020.8 19.7 NW 22.8 0.0 0.6
12:29 12.9 11.6 92 1020.8 15.9 SW 22.8 0.0 0.6
12:30 12.9 11.6 92 1020.7 19.7 SW 22.8 0.0 0.6
12:31 12.8 11.5 92 1020.8 14.5 NW 22.8 0.0 0.6
12:32 12.7 11.4 92 1020.9 17.4 W 22.8 0.0 0.6
12:33 12.7 11.4 92 1021.0 23.5 SW 23.5 0.0 0.6
12:34 12.6 11.3 92 1021.0 16.8 SW 23.5 0.0 0.6
12:35 12.6 11.3 92 1020.9 14.5 W 23.5 0.0 0.6
12:36 12.5 11.2 92 1021.0 15.2 W 23.5 0.0 0.6
12:37 12.5 11.2 92 1021.1 22.1 W 23.5 0.0 0.6
12:38 12.5 11.2 92 1021.0 15.9 W 23.5 0.0 0.6
12:38 12.5 11.2 92 1021.0 15.9 W 23.5 0.0 0.6
12:39 12.5 11.4 93 1020.9 18.3 W 23.5 0.0 0.6
12:40 12.5 11.2 92 1021.0 17.4 W 23.5 0.0 0.6
12:41 12.4 11.3 93 1020.9 18.3 SW 23.5 0.0 0.6
12:42 12.4 11.3 93 1021.2 17.4 SW 23.5 0.0 0.6
12:43 12.4 11.3 93 1021.0 16.8 SW 23.5 0.0 0.6
12:44 12.4 11.3 93 1021.0 15.9 W 22.1 0.0 0.6
12:45 12.4 11.3 93 1021.1 16.8 SW 22.1 0.0 0.6
12:47 12.3 11.2 93 1021.0 18.3 SW 22.1 0.0 0.6
12:48 12.3 11.2 93 1020.9 19.7 W 22.1 0.0 0.6
12:49 12.3 11.2 93 1020.9 18.3 SW 22.1 0.0 0.6
12:50 12.3 11.2 93 1021.1 19.7 N 22.1 0.0 0.6
12:51 12.3 11.2 93 1021.1 16.8 SW 22.1 0.0 0.6
12:52 12.3 11.2 93 1021.1 27.3 WNW 27.3 0.0 0.6
12:53 12.2 11.1 93 1021.1 19.0 W 27.3 0.0 0.6
12:54 12.2 11.1 93 1021.2 19.0 NW 27.3 0.0 0.6
12:55 12.2 11.1 93 1021.1 18.3 SW 27.3 0.0 0.6
12:56 12.2 11.1 93 1021.0 21.3 W 27.3 0.0 0.6
12:56 12.2 11.1 93 1021.0 21.3 W 27.3 0.0 0.6
12:57 12.2 11.1 93 1021.1 19.7 SW 27.3 0.0 0.6
12:58 12.2 10.9 92 1021.0 16.8 SW 27.3 0.0 0.6
12:59 12.2 11.1 93 1021.1 17.4 W 27.3 0.0 0.6
13:00 12.2 11.1 93 1021.0 17.4 W 27.3 0.0 0.6
13:01 12.2 11.1 93 1021.0 19.0 SW 27.3 0.0 0.6
13:02 12.2 11.1 93 1021.0 14.5 W 22.1 0.0 0.6
13:03 12.1 11.0 93 1021.3 13.6 SW 22.1 0.0 0.6
13:05 12.1 11.0 93 1021.1 13.6 NW 21.3 0.0 0.6
13:06 12.1 11.0 93 1021.1 16.8 W 21.3 0.0 0.6
13:07 12.0 10.9 93 1021.0 19.7 W 20.6 0.0 0.6
13:07 12.0 10.9 93 1021.0 19.7 W 20.6 0.0 0.6
13:08 12.0 10.9 93 1021.0 12.1 SW 20.6 0.0 0.6
13:10 11.9 10.8 93 1021.1 13.6 SW 20.6 0.0 0.6
13:11 11.9 10.8 93 1020.9 9.8 W 20.6 0.0 0.6
13:11 11.9 10.8 93 1020.9 9.8 W 20.6 0.0 0.6
13:12 11.9 11.0 94 1020.8 18.3 SW 20.6 0.0 0.6
13:12 11.9 11.0 94 1020.8 18.3 SW 20.6 0.0 0.6
13:14 11.9 11.0 94 1020.8 9.2 W 19.7 0.0 0.6
13:15 11.9 11.0 94 1020.9 7.6 SW 19.7 0.0 0.6
13:16 11.9 11.0 94 1021.0 9.8 NW 19.7 0.0 0.6
13:17 11.9 11.0 94 1020.9 14.5 SW 19.7 0.0 0.6
13:18 11.9 11.0 94 1020.9 10.7 W 18.3 0.0 0.6
13:19 11.9 11.0 94 1020.7 11.4 W 18.3 0.0 0.6
13:20 11.9 11.0 94 1020.9 9.8 W 18.3 0.0 0.6
13:21 11.9 11.0 94 1020.8 12.1 SW 18.3 0.0 0.6
13:23 12.0 11.1 94 1020.8 8.3 S 15.2 0.0 0.6
13:24 12.0 11.2 95 1020.8 11.4 W 14.5 0.0 0.6
13:25 12.0 11.2 95 1021.0 13.0 SW 14.5 0.0 0.6
13:26 12.1 11.3 95 1020.7 15.2 W 15.2 0.0 0.6
13:27 12.1 11.3 95 1020.8 13.0 NW 15.2 0.0 0.6
13:28 12.1 11.3 95 1020.9 9.2 SW 15.2 0.0 0.6
13:29 12.1 11.3 95 1020.7 9.8 W 15.9 0.0 0.6
13:30 12.2 11.4 95 1020.9 14.5 NW 15.9 0.0 0.6
13:31 12.2 11.4 95 1020.8 13.6 SW 15.9 0.0 0.6
13:32 12.2 11.4 95 1020.9 17.4 S 17.4 0.0 0.6
13:33 12.2 11.4 95 1020.8 16.8 WNW 17.4 0.0 0.6
13:34 12.2 11.4 95 1020.9 15.2 W 17.4 0.0 0.6
13:35 12.1 11.3 95 1020.7 13.0 SW 17.4 0.0 0.6
13:36 12.1 11.2 94 1020.9 18.3 NW 18.3 0.0 0.6
13:37 12.1 11.2 94 1020.9 12.1 SW 18.3 0.0 0.6
13:38 12.1 11.2 94 1020.8 13.6 W 18.3 0.0 0.6
13:38 12.1 11.2 94 1020.8 13.6 W 18.3 0.0 0.6
13:39 12.1 11.2 94 1021.0 16.8 SW 18.3 0.0 0.6
13:40 12.1 11.2 94 1021.0 12.1 SW 18.3 0.0 0.6
13:41 12.1 11.2 94 1020.9 19.0 SW 19.0 0.0 0.6
13:42 12.1 11.2 94 1021.0 13.6 SW 19.0 0.0 0.6
13:43 12.0 11.1 94 1021.1 16.8 N 19.0 0.0 0.6
13:44 12.0 11.2 95 1021.1 19.0 SW 19.0 0.0 0.6
13:45 12.0 11.2 95 1021.0 13.6 W 19.0 0.0 0.6
13:46 12.0 11.2 95 1021.0 15.2 SW 19.0 0.0 0.6
13:47 11.9 11.1 95 1020.9 13.0 NW 19.0 0.0 0.6
13:48 11.8 11.2 96 1020.9 17.4 SW 19.0 0.0 0.6
13:49 11.8 11.2 96 1020.8 19.7 SW 19.7 0.0 0.6
13:50 11.8 11.2 96 1020.8 12.1 W 19.7 0.0 0.6
13:51 11.7 11.1 96 1021.0 20.6 SW 20.6 0.0 0.6
13:52 11.7 11.1 96 1020.8 15.9 SW 20.6 0.0 0.6
13:53 11.7 11.1 96 1020.8 16.8 SW 20.6 0.0 0.6
13:55 11.6 11.1 97 1021.1 15.2 SW 20.6 0.0 0.6
13:56 11.7 11.2 97 1020.9 11.4 NW 20.6 0.0 0.6
13:57 11.5 11.0 97 1021.0 15.2 SW 20.6 0.0 0.6
13:58 11.5 11.0 97 1021.0 17.4 SW 20.6 0.0 0.6
13:59 11.5 11.0 97 1020.9 19.7 SW 20.6 0.0 0.6
14:00 11.5 11.0 97 1021.0 20.6 W 20.6 0.0 0.6
14:01 11.4 10.9 97 1020.9 16.8 SW 20.6 0.0 0.6
14:02 11.4 10.9 97 1020.8 15.9 NW 20.6 0.0 0.6
14:03 11.4 10.9 97 1020.9 15.2 S 20.6 0.0 0.6
14:04 11.4 10.9 97 1020.9 14.5 SW 20.6 0.0 0.6
14:05 11.3 10.8 97 1021.0 14.5 W 20.6 0.0 0.6
14:05 11.3 10.8 97 1021.0 14.5 W 20.6 0.0 0.6
14:07 11.3 11.0 98 1021.0 14.5 W 20.6 0.0 0.6
14:08 11.2 10.9 98 1020.9 10.7 NW 20.6 0.0 0.6
14:08 11.2 10.9 98 1020.9 10.7 NW 20.6 0.0 0.6
14:10 11.2 10.9 98 1020.9 11.4 S 20.6 0.0 0.6
14:11 11.1 10.8 98 1020.8 10.7 W 16.8 0.0 0.6
14:11 11.1 10.8 98 1020.8 10.7 W 16.8 0.0 0.6
14:12 11.2 10.9 98 1020.7 9.2 SW 16.8 0.0 0.6
14:14 11.2 11.1 99 1020.7 9.8 SW 16.8 0.0 0.6
14:15 11.1 11.0 99 1020.8 9.2 SW 16.8 0.0 0.6
14:16 11.1 11.0 99 1020.7 11.4 W 16.8 0.0 0.6
14:17 11.1 11.0 99 1020.6 9.8 N 14.5 0.0 0.6
14:18 11.1 11.0 99 1020.8 8.3 SW 13.6 0.0 0.6
14:19 11.1 11.0 99 1020.8 11.4 NNW 13.6 0.0 0.6
14:20 11.2 11.1 99 1020.8 12.1 SW 12.1 0.0 0.6
14:21 11.2 11.1 99 1021.0 10.7 SW 12.1 0.0 0.6
14:22 11.2 11.1 99 1020.8 9.8 SW 12.1 0.0 0.6
14:23 11.2 11.1 99 1021.0 13.6 SW 13.6 0.0 0.6
14:24 11.2 11.1 99 1021.0 15.2 NW 15.2 0.0 0.6
14:24 11.2 11.1 99 1021.0 15.2 NW 15.2 0.0 0.6
14:25 11.2 11.1 99 1020.8 15.9 W 15.9 0.0 0.6
14:26 11.2 11.1 99 1020.8 13.6 W 15.9 0.0 0.6
14:27 11.3 11.2 99 1020.8 10.7 W 15.9 0.0 0.6
14:28 11.3 11.2 99 1020.9 16.8 W 16.8 0.0 0.6
14:30 11.3 11.2 99 1020.8 10.7 SW 16.8 0.0 0.6
14:31 11.3 11.2 99 1021.1 13.0 SW 16.8 0.0 0.6
14:32 11.4 11.3 99 1021.0 15.9 W 16.8 0.0 0.6
14:33 11.4 11.3 99 1021.1 13.6 SW 16.8 0.0 0.6
14:34 11.4 11.3 99 1021.0 16.8 NW 17.4 0.0 0.6
14:35 11.4 11.3 99 1021.0 20.6 SW 20.6 0.0 0.6
14:36 11.4 11.3 99 1021.2 19.7 S 20.6 0.0 0.6
14:37 11.4 11.3 99 1021.0 21.3 S 21.3 0.0 0.6
14:38 11.3 11.2 99 1021.1 15.9 W 21.3 0.0 0.6
14:39 11.3 11.2 99 1021.1 11.4 WNW 21.3 0.0 0.6
14:40 11.3 11.2 99 1020.9 16.8 W 21.3 0.0 0.6
14:41 11.2 11.1 99 1020.9 10.7 W 21.3 0.0 0.6
14:42 11.2 11.1 99 1020.9 9.2 SW 21.3 0.0 0.6
14:43 11.2 11.1 99 1020.9 11.4 SW 21.3 0.0 0.6
14:44 11.2 11.1 99 1021.0 6.9 W 21.3 0.0 0.6
14:45 11.1 11.0 99 1020.9 13.0 SW 21.3 0.0 0.6
14:46 11.1 11.0 99 1020.8 8.3 SW 21.3 0.0 0.6
14:47 11.1 11.0 99 1020.9 6.9 W 21.3 0.0 0.6
14:48 11.1 11.0 99 1020.9 8.3 SW 16.8 0.0 0.6
14:50 11.0 10.9 99 1020.8 9.8 WNW 16.8 0.0 0.6
14:51 11.1 11.0 99 1020.9 8.3 W 13.0 0.0 0.6
14:52 11.0 10.9 99 1020.6 12.1 WNW 13.0 0.0 0.6
14:52 11.0 10.9 99 1020.6 12.1 WNW 13.0 0.0 0.6
14:53 11.0 10.9 99 1020.7 9.8 NW 13.0 0.0 0.6
14:54 11.1 11.0 99 1020.7 13.0 SW 13.0 0.0 0.6
14:55 11.1 11.0 99 1020.8 13.0 SW 13.0 0.0 0.6
14:56 11.1 11.0 99 1020.7 11.4 NW 13.0 0.0 0.6
14:57 11.1 11.0 99 1020.7 12.1 NW 13.0 0.0 0.6
14:58 11.1 11.0 99 1020.7 9.2 W 13.0 0.0 0.6
14:59 11.1 11.0 99 1020.7 9.8 W 13.0 0.0 0.6
15:00 11.2 11.1 99 1020.8 13.6 SW 13.6 0.0 0.6
15:01 11.2 11.1 99 1020.8 13.6 SW 13.6 0.0 0.6
15:02 11.2 11.1 99 1020.7 13.6 N 13.6 0.0 0.6
15:03 11.2 11.1 99 1020.8 11.4 SW 13.6 0.0 0.6
15:04 11.2 11.1 99 1020.9 14.5 W 14.5 0.0 0.6
15:05 11.2 11.1 99 1020.8 13.6 SW 14.5 0.0 0.6
15:06 11.3 11.2 99 1020.9 11.4 SW 14.5 0.0 0.6
15:08 11.3 11.2 99 1020.8 13.0 W 14.5 0.0 0.6
15:08 11.3 11.2 99 1020.8 13.0 W 14.5 0.0 0.6
15:09 11.4 11.3 99 1020.9 9.8 W 14.5 0.0 0.6
15:10 11.3 11.2 99 1020.9 8.3 N 14.5 0.0 0.6
15:10 11.3 11.2 99 1020.9 8.3 N 14.5 0.0 0.6
15:12 11.4 11.3 99 1020.8 9.8 W 14.5 0.0 0.6
15:13 11.4 11.3 99 1020.8 11.4 W 14.5 0.0 0.6
15:14 11.4 11.3 99 1020.7 8.3 SW 13.6 0.0 0.6
15:15 11.4 11.3 99 1020.7 7.6 SW 13.6 0.0 0.6
15:16 11.4 11.3 99 1020.6 9.8 SW 13.6 0.0 0.6
15:17 11.4 11.3 99 1020.6 10.7 SW 13.6 0.0 0.6
15:18 11.5 11.4 99 1020.6 10.7 SW 13.0 0.0 0.6
15:20 11.5 11.4 99 1020.6 10.7 S 13.0 0.0 0.6
15:21 11.5 11.4 99 1020.6 9.8 SW 13.0 0.0 0.6
15:22 11.7 11.6 99 1020.7 12.1 SW 13.0 0.0 0.6
15:22 11.7 11.6 99 1020.7 12.1 SW 13.0 0.0 0.6
15:23 11.6 11.5 99 1020.6 7.6 W 13.0 0.0 0.6
15:24 11.6 11.5 99 1020.7 9.2 SW 12.1 0.0 0.6
15:25 11.6 11.5 99 1020.5 9.8 SW 12.1 0.0 0.6
15:26 11.6 11.5 99 1020.5 7.6 SW 12.1 0.0 0.6
15:27 11.6 11.5 99 1020.6 11.4 S 12.1 0.0 0.6
15:28 11.6 11.5 99 1020.6 10.7 SW 12.1 0.0 0.6
15:29 11.6 11.5 99 1020.6 11.4 S 12.1 0.0 0.6
15:30 11.6 11.5 99 1020.7 13.0 SW 13.0 0.0 0.6
15:31 11.7 11.6 99 1020.6 9.2 SW 13.0 0.0 0.6
15:32 11.7 11.6 99 1020.6 9.8 SW 13.0 0.0 0.6
15:33 11.7 11.6 99 1020.6 9.8 NW 13.0 0.0 0.6
15:34 11.7 11.6 99 1020.6 9.8 W 13.0 0.0 0.6
15:35 11.7 11.6 99 1020.5 11.4 SW 13.0 0.0 0.6
15:36 11.7 11.6 99 1020.6 13.6 SW 13.6 0.0 0.6
15:37 11.7 11.6 99 1020.6 9.8 SW 13.6 0.0 0.6
15:38 11.7 11.6 99 1020.6 9.2 SW 13.6 0.0 0.6
15:39 11.7 11.6 99 1020.6 9.2 W 13.6 0.0 0.6
15:40 11.8 11.7 99 1020.7 10.7 W 13.6 0.0 0.6
15:41 11.8 11.7 99 1020.6 13.0 SW 16.8 0.0 0.6
15:42 11.8 11.7 99 1020.6 9.2 SW 16.8 0.0 0.6
15:43 11.8 11.7 99 1020.6 10.7 W 16.8 0.0 0.6
15:44 11.8 11.7 99 1020.6 9.8 W 16.8 0.0 0.6
15:45 11.8 11.7 99 1020.6 9.2 W 16.8 0.0 0.6
15:46 11.8 11.7 99 1020.6 15.2 N 16.8 0.0 0.6
15:47 11.8 11.7 99 1020.6 15.2 SW 16.8 0.0 0.6
15:48 11.8 11.7 99 1020.5 13.6 S 16.8 0.0 0.6
15:49 11.8 11.7 99 1020.6 10.7 SW 16.8 0.0 0.6
15:50 11.8 11.7 99 1020.6 13.6 SW 16.8 0.0 0.6
15:52 11.9 11.8 99 1020.6 9.8 SW 15.2 0.0 0.6
15:53 11.8 11.7 99 1020.7 9.2 SW 15.2 0.0 0.6
15:53 11.8 11.7 99 1020.7 9.2 SW 15.2 0.0 0.6
15:54 11.9 11.8 99 1020.6 7.6 SW 15.2 0.0 0.6
15:55 11.9 11.8 99 1020.7 10.7 SW 15.2 0.0 0.6
15:56 11.8 11.7 99 1020.6 8.3 SW 15.2 0.0 0.6
15:57 11.8 11.7 99 1020.6 11.4 SW 15.2 0.0 0.6
15:58 11.8 11.7 99 1020.6 14.5 SW 14.5 0.0 0.6
15:59 11.8 11.7 99 1020.6 11.4 W 14.5 0.0 0.6
16:00 11.9 11.8 99 1020.6 12.1 SW 14.5 0.0 0.6
16:01 11.9 11.8 99 1020.5 12.1 SW 14.5 0.0 0.6
16:02 11.9 11.8 99 1020.6 12.1 SW 14.5 0.0 0.6
16:03 11.9 11.8 99 1020.8 12.1 SW 14.5 0.0 0.6
16:04 11.9 11.8 99 1020.6 12.1 SW 14.5 0.0 0.6
16:05 11.9 11.8 99 1020.5 12.1 SW 14.5 0.0 0.6
16:06 11.9 11.8 99 1020.6 11.4 SW 14.5 0.0 0.6
16:07 11.9 11.8 99 1020.5 8.3 SW 14.5 0.0 0.6
16:07 11.9 11.8 99 1020.5 8.3 SW 14.5 0.0 0.6
16:09 11.9 11.8 99 1020.6 14.5 SW 14.5 0.0 0.6
16:10 11.9 11.8 99 1020.4 8.3 NW 14.5 0.0 0.6
16:10 11.9 11.8 99 1020.4 8.3 NW 14.5 0.0 0.6
16:12 11.9 11.8 99 1020.6 6.9 SW 14.5 0.0 0.6
16:13 11.9 11.8 99 1020.6 7.6 NNW 14.5 0.0 0.6
16:14 11.9 11.8 99 1020.6 13.0 W 14.5 0.0 0.6
16:15 11.9 11.8 99 1020.7 12.1 SW 14.5 0.0 0.6
16:16 11.9 11.8 99 1020.6 14.5 SW 14.5 0.0 0.6
16:17 11.9 11.8 99 1020.7 10.7 W 14.5 0.0 0.6
16:18 11.9 11.8 99 1020.7 9.8 NW 14.5 0.0 0.6
16:19 11.9 11.8 99 1020.5 14.5 SW 14.5 0.0 0.6
16:20 11.9 11.8 99 1020.5 12.1 SW 14.5 0.0 0.6
16:21 11.9 11.8 99 1020.7 10.7 SW 14.5 0.0 0.6
16:21 11.9 11.8 99 1020.7 10.7 SW 14.5 0.0 0.6
16:23 11.9 11.8 99 1020.7 12.1 W 14.5 0.0 0.6
16:24 11.9 11.8 99 1020.5 17.4 SW 17.4 0.0 0.6
16:25 11.9 11.8 99 1020.6 15.2 SW 17.4 0.0 0.6
16:26 11.9 11.8 99 1020.5 13.6 SW 17.4 0.0 0.6
16:27 11.9 11.8 99 1020.4 7.6 SW 17.4 0.0 0.6
16:28 11.9 11.8 99 1020.5 10.7 SW 17.4 0.0 0.6
16:29 11.9 11.8 99 1020.4 12.1 SW 17.4 0.0 0.6
16:30 11.9 11.8 99 1020.5 13.0 SW 17.4 0.0 0.6
16:31 11.9 11.8 99 1020.5 7.6 SW 17.4 0.0 0.6
16:32 11.9 11.8 99 1020.5 9.8 SW 17.4 0.0 0.6
16:33 11.9 11.8 99 1020.4 10.7 S 17.4 0.0 0.6
16:34 11.9 11.8 99 1020.4 12.1 WNW 15.2 0.0 0.6
16:35 11.9 11.8 99 1020.3 11.4 SW 13.6 0.0 0.6
16:36 11.9 11.8 99 1020.4 10.7 S 13.0 0.0 0.6
16:37 11.9 11.8 99 1020.4 8.3 N 13.0 0.0 0.6
16:38 12.0 11.9 99 1020.4 9.8 SW 13.0 0.0 0.6
16:39 11.9 11.8 99 1020.4 13.0 S 13.0 0.0 0.6
16:40 11.9 11.8 99 1020.3 11.4 S 13.0 0.0 0.6
16:41 12.0 11.9 99 1020.3 13.6 SW 13.6 0.0 0.6
16:42 12.0 11.9 99 1020.3 9.2 SW 13.6 0.0 0.6
16:43 11.9 11.8 99 1020.4 9.2 SW 13.6 0.0 0.6
16:44 12.0 11.9 99 1020.4 12.1 W 13.6 0.0 0.6
16:45 12.0 11.9 99 1020.3 13.6 SW 13.6 0.0 0.6
16:46 12.0 11.9 99 1020.5 9.2 S 13.6 0.0 0.6
16:48 12.0 11.9 99 1020.4 15.2 SW 15.2 0.0 0.6
16:48 12.0 11.9 99 1020.4 15.2 SW 15.2 0.0 0.6
16:49 12.0 11.9 99 1020.3 15.9 SW 15.9 0.0 0.6
16:50 12.0 11.9 99 1020.6 15.9 SW 15.9 0.0 0.6
16:51 12.0 11.9 99 1020.5 11.4 SW 15.9 0.0 0.6
16:52 12.0 11.9 99 1020.5 9.8 SW 15.9 0.0 0.6
16:53 12.0 11.9 99 1020.4 12.1 S 15.9 0.0 0.6
16:54 12.0 11.9 99 1020.4 10.7 SW 15.9 0.0 0.6
16:55 12.0 11.9 99 1020.7 15.9 S 15.9 0.0 0.6
16:56 11.9 11.8 99 1020.5 13.6 SW 15.9 0.0 0.6
16:57 11.9 11.8 99 1020.5 13.0 S 15.9 0.0 0.6
16:58 11.9 11.8 99 1020.5 11.4 S 15.9 0.0 0.6
16:59 11.9 11.8 99 1020.5 9.2 S 15.9 0.0 0.6
17:00 11.9 11.8 99 1020.5 12.1 SW 15.9 0.0 0.6
17:01 11.9 11.8 99 1020.4 12.1 SW 15.9 0.0 0.6
17:02 11.9 11.8 99 1020.4 12.1 SW 15.9 0.0 0.6
17:03 11.9 11.8 99 1020.3 12.1 SW 15.9 0.0 0.6
17:04 11.9 11.8 99 1020.4 12.1 SW 15.9 0.0 0.6
17:05 11.9 11.8 99 1020.3 11.4 S 13.6 0.0 0.6
17:06 11.9 11.8 99 1020.4 11.4 SW 13.6 0.0 0.6
17:06 11.9 11.8 99 1020.4 11.4 SW 13.6 0.0 0.6
17:08 11.9 11.8 99 1020.2 9.8 SW 13.6 0.0 0.6
17:09 11.9 11.8 99 1020.3 9.2 SW 13.6 0.0 0.6
17:11 11.8 11.7 99 1020.3 9.2 SW 12.1 0.0 0.6
17:12 11.9 11.8 99 1020.4 8.3 SW 12.1 0.0 0.6
17:13 11.9 11.8 99 1020.3 11.4 SW 12.1 0.0 0.6
17:14 11.8 11.7 99 1020.3 11.4 SW 12.1 0.0 0.6
17:15 11.8 11.7 99 1020.4 9.8 S 11.4 0.0 0.6
17:16 11.9 11.8 99 1020.3 11.4 NW 11.4 0.0 0.6
17:17 11.8 11.7 99 1020.3 12.1 NW 13.6 0.0 0.6
17:18 11.9 11.8 99 1020.4 9.8 S 13.6 0.0 0.6
17:20 11.9 11.8 99 1020.3 9.2 NW 13.6 0.0 0.6
17:21 11.8 11.7 99 1020.4 6.9 SW 13.6 0.0 0.6
17:21 11.8 11.7 99 1020.4 6.9 SW 13.6 0.0 0.6
17:22 11.8 11.7 99 1020.4 8.3 W 13.6 0.0 0.6
17:23 11.8 11.7 99 1020.4 7.6 SW 13.6 0.0 0.6
17:24 11.8 11.7 99 1020.5 8.3 SW 13.6 0.0 0.6
17:25 11.8 11.7 99 1020.4 13.0 SW 13.6 0.0 0.6
17:26 11.8 11.7 99 1020.6 9.2 SW 13.6 0.0 0.6
17:27 11.8 11.7 99 1020.5 9.2 SW 13.6 0.0 0.6
17:28 11.8 11.7 99 1020.6 10.7 W 13.0 0.0 0.6
17:29 11.8 11.7 99 1020.6 9.2 S 13.0 0.0 0.6
17:30 11.8 11.7 99 1020.5 9.8 S 13.0 0.0 0.6
17:31 11.8 11.7 99 1020.5 9.8 NW 13.0 0.0 0.6
17:32 11.8 11.7 99 1020.5 9.2 SW 13.0 0.0 0.6
17:33 11.8 11.7 99 1020.5 8.3 S 13.0 0.0 0.6
17:34 11.8 11.7 99 1020.5 10.7 SW 13.0 0.0 0.6
17:35 11.8 11.7 99 1020.5 10.7 SW 12.1 0.0 0.6
17:36 11.8 11.7 99 1020.4 8.3 SW 12.1 0.0 0.6
17:37 11.8 11.7 99 1020.4 9.8 SW 12.1 0.0 0.6
17:38 11.8 11.7 99 1020.6 8.3 SW 12.1 0.0 0.6
17:39 11.8 11.7 99 1020.5 11.4 S 12.1 0.0 0.6
17:40 11.8 11.7 99 1020.6 7.6 S 12.1 0.0 0.6
17:41 11.7 11.6 99 1020.5 7.6 W 12.1 0.0 0.6
17:42 11.7 11.6 99 1020.6 7.6 SW 11.4 0.0 0.6
17:43 11.7 11.6 99 1020.5 9.2 SW 11.4 0.0 0.6
17:44 11.7 11.6 99 1020.6 6.9 S 11.4 0.0 0.6
17:45 11.7 11.6 99 1020.6 12.1 SW 12.1 0.0 0.6
17:46 11.7 11.6 99 1020.7 11.4 SW 12.1 0.0 0.6
17:48 11.7 11.6 99 1020.7 10.7 SW 12.1 0.0 0.6
17:48 11.7 11.6 99 1020.7 10.7 SW 12.1 0.0 0.6
17:49 11.7 11.6 99 1020.5 9.8 S 12.1 0.0 0.6
17:50 11.7 11.6 99 1020.7 7.6 S 12.1 0.0 0.6
17:51 11.7 11.6 99 1020.6 8.3 SW 12.1 0.0 0.6
17:52 11.7 11.6 99 1020.6 6.0 SW 12.1 0.0 0.6
17:53 11.6 11.5 99 1020.6 8.3 SW 12.1 0.0 0.6
17:54 11.6 11.5 99 1020.7 6.9 S 12.1 0.0 0.6
17:55 11.6 11.5 99 1020.7 6.9 SW 12.1 0.0 0.6
17:56 11.6 11.5 99 1020.6 9.2 S 12.1 0.0 0.6
17:57 11.7 11.6 99 1020.7 9.2 SW 12.1 0.0 0.6
17:58 11.7 11.6 99 1020.6 7.6 SW 10.7 0.0 0.6
17:59 11.6 11.5 99 1020.6 9.8 S 9.8 0.0 0.6
18:00 11.6 11.5 99 1020.7 6.9 SW 9.8 0.0 0.6
18:01 11.6 11.5 99 1020.7 6.9 SW 9.8 0.0 0.6
18:02 11.6 11.5 99 1020.5 6.9 SW 9.8 0.0 0.6
18:03 11.6 11.5 99 1020.6 6.9 SW 9.8 0.0 0.6
18:04 11.6 11.5 99 1020.5 6.9 SW 9.8 0.0 0.6
18:05 11.6 11.5 99 1020.6 8.3 S 9.8 0.0 0.6
18:06 11.5 11.4 99 1020.6 6.0 S 9.8 0.0 0.6
18:08 11.5 11.4 99 1020.7 7.6 NW 9.8 0.0 0.6
18:08 11.5 11.4 99 1020.7 7.6 NW 9.8 0.0 0.6
18:09 11.5 11.4 99 1020.6 6.9 SW 9.8 0.0 0.6
18:10 11.5 11.4 99 1020.5 8.3 S 8.3 0.0 0.6
18:10 11.5 11.4 99 1020.5 8.3 S 8.3 0.0 0.6
18:12 11.5 11.4 99 1020.6 8.3 SW 8.3 0.0 0.6
18:13 11.4 11.3 99 1020.6 9.8 SW 9.8 0.0 0.6
18:14 11.4 11.3 99 1020.6 8.3 SW 9.8 0.0 0.6
18:15 11.5 11.4 99 1020.4 8.3 S 9.8 0.0 0.6
18:16 11.4 11.3 99 1020.7 6.9 SW 9.8 0.0 0.6
18:17 11.4 11.3 99 1020.7 6.0 NW 9.8 0.0 0.6
18:18 11.4 11.3 99 1020.7 6.0 SW 9.8 0.0 0.6
18:19 11.4 11.3 99 1020.7 6.0 SW 9.8 0.0 0.6
18:19 11.4 11.3 99 1020.7 6.0 SW 9.8 0.0 0.6
18:21 11.4 11.3 99 1020.6 5.4 SW 9.8 0.0 0.6
18:22 11.4 11.3 99 1020.6 5.4 SW 9.8 0.0 0.6
18:23 11.4 11.3 99 1020.6 6.0 S 9.8 0.0 0.6
18:24 11.4 11.3 99 1020.7 5.4 S 8.3 0.0 0.6
18:25 11.4 11.3 99 1020.7 6.9 SW 8.3 0.0 0.6
18:26 11.3 11.2 99 1020.5 5.4 SW 7.6 0.0 0.6
18:27 11.4 11.3 99 1020.5 7.6 W 7.6 0.0 0.6
18:28 11.3 11.2 99 1020.7 5.4 S 7.6 0.0 0.6
18:29 11.3 11.2 99 1020.6 6.9 SW 7.6 0.0 0.6
18:30 11.3 11.2 99 1020.7 7.6 SW 7.6 0.0 0.6
18:31 11.3 11.2 99 1020.6 9.2 S 9.2 0.0 0.6
18:32 11.3 11.2 99 1020.7 5.4 S 9.2 0.0 0.6
18:33 11.3 11.2 99 1020.8 8.3 SW 9.2 0.0 0.6
18:34 11.3 11.2 99 1020.8 7.6 SW 9.2 0.0 0.6
18:35 11.3 11.2 99 1020.9 6.0 S 9.2 0.0 0.6
18:36 11.3 11.2 99 1020.7 6.0 S 9.2 0.0 0.6
18:37 11.3 11.2 99 1020.7 6.0 S 9.2 0.0 0.6
18:38 11.3 11.2 99 1020.8 8.3 S 9.2 0.0 0.6
18:39 11.3 11.2 99 1020.9 6.9 S 9.2 0.0 0.6
18:40 11.2 11.1 99 1020.9 9.2 S 9.2 0.0 0.6
18:41 11.2 11.1 99 1020.8 4.5 S 9.2 0.0 0.6
18:42 11.3 11.2 99 1020.7 6.0 SW 9.2 0.0 0.6
18:43 11.3 11.2 99 1020.9 8.3 S 9.2 0.0 0.6
18:44 11.3 11.2 99 1020.8 5.4 S 9.2 0.0 0.6
18:45 11.2 11.1 99 1020.7 6.0 S 9.2 0.0 0.6
18:46 11.3 11.2 99 1020.8 6.0 S 9.2 0.0 0.6
18:47 11.3 11.2 99 1020.9 6.0 SW 9.2 0.0 0.6
18:47 11.3 11.2 99 1020.9 6.0 SW 9.2 0.0 0.6
18:49 11.3 11.2 99 1020.8 7.6 SW 9.2 0.0 0.6
18:50 11.3 11.2 99 1020.8 7.6 SW 9.2 0.0 0.6
18:51 11.2 11.1 99 1020.8 8.3 SW 8.3 0.0 0.6
18:52 11.3 11.2 99 1020.8 7.6 S 8.3 0.0 0.6
18:53 11.3 11.2 99 1020.7 9.2 S 9.2 0.0 0.6
18:54 11.2 11.1 99 1020.7 8.3 S 9.2 0.0 0.6
18:55 11.3 11.2 99 1020.8 9.8 SW 9.8 0.0 0.6
18:56 11.2 11.1 99 1020.7 9.2 S 9.8 0.0 0.6
18:57 11.3 11.2 99 1020.7 10.7 S 10.7 0.0 0.6
18:57 11.3 11.2 99 1020.7 10.7 S 10.7 0.0 0.6
18:59 11.3 11.2 99 1020.6 8.3 S 10.7 0.0 0.6
19:00 11.3 11.2 99 1020.7 9.8 S 10.7 0.0 0.6
19:01 11.3 11.2 99 1020.9 9.8 S 10.7 0.0 0.6
19:02 11.3 11.2 99 1020.8 9.8 S 10.7 0.0 0.6
19:03 11.3 11.2 99 1020.8 9.8 S 10.7 0.0 0.6
19:04 11.3 11.2 99 1020.7 9.8 S 10.7 0.0 0.6
19:04 11.3 11.2 99 1020.7 9.8 S 10.7 0.0 0.6
19:06 11.3 11.2 99 1020.8 8.3 S 10.7 0.0 0.6
19:07 11.3 11.2 99 1020.9 7.6 SW 10.7 0.0 0.6
19:07 11.3 11.2 99 1020.9 7.6 SW 10.7 0.0 0.6
19:09 11.3 11.2 99 1020.8 10.7 S 10.7 0.0 0.6
19:10 11.4 11.3 99 1020.8 9.8 SW 10.7 0.0 0.6
19:10 11.4 11.3 99 1020.8 9.8 SW 10.7 0.0 0.6
19:12 11.4 11.3 99 1020.9 9.8 SW 10.7 0.0 0.6
19:12 11.4 11.3 99 1020.9 9.8 SW 10.7 0.0 0.6
19:14 11.4 11.3 99 1020.9 10.7 SW 13.0 0.0 0.6
19:15 11.4 11.3 99 1020.8 13.6 W 13.6 0.0 0.6
19:16 11.4 11.3 99 1020.9 8.3 WSW 13.6 0.0 0.6
19:17 11.4 11.3 99 1020.8 11.4 SW 13.6 0.0 0.6
19:18 11.4 11.3 99 1020.7 11.4 S 13.6 0.0 0.6
19:18 11.4 11.3 99 1020.7 11.4 S 13.6 0.0 0.6
19:20 11.4 11.3 99 1020.9 11.4 WNW 13.6 0.0 0.6
19:21 11.4 11.3 99 1020.8 12.1 SW 13.6 0.0 0.6
19:22 11.4 11.3 99 1020.9 8.3 S 13.6 0.0 0.6
19:23 11.5 11.4 99 1020.9 10.7 SW 13.6 0.0 0.6
19:24 11.5 11.4 99 1020.8 10.7 S 13.6 0.0 0.6
19:25 11.5 11.4 99 1020.8 10.7 W 13.6 0.0 0.6
19:26 11.5 11.4 99 1020.8 12.1 SW 13.0 0.0 0.6
19:26 11.5 11.4 99 1020.8 12.1 SW 13.0 0.0 0.6
19:28 11.5 11.4 99 1020.8 13.6 SW 13.6 0.0 0.6
19:29 11.5 11.4 99 1020.8 9.8 SW 13.6 0.0 0.6
19:30 11.5 11.4 99 1020.9 8.3 S 13.6 0.0 0.6
19:31 11.5 11.4 99 1020.9 8.3 S 13.6 0.0 0.6
19:32 11.5 11.4 99 1020.8 12.1 SW 13.6 0.0 0.6
19:33 11.5 11.4 99 1020.9 9.2 SW 13.6 0.0 0.6
19:34 11.5 11.4 99 1021.0 9.2 S 13.6 0.0 0.6
19:36 11.5 11.4 99 1020.8 9.2 SW 13.6 0.0 0.6
19:36 11.5 11.4 99 1020.8 9.2 SW 13.6 0.0 0.6
19:37 11.6 11.5 99 1020.9 6.9 SW 13.6 0.0 0.6
19:38 11.6 11.5 99 1021.0 9.2 SE 13.6 0.0 0.6
19:39 11.6 11.5 99 1021.0 9.8 S 12.1 0.0 0.6
19:40 11.6 11.5 99 1021.0 10.7 SW 12.1 0.0 0.6
19:41 11.6 11.5 99 1020.8 10.7 S 12.1 0.0 0.6
19:42 11.6 11.5 99 1020.9 13.0 W 13.0 0.0 0.6
19:43 11.6 11.5 99 1020.9 13.6 SW 13.6 0.0 0.6
19:43 11.6 11.5 99 1020.9 13.6 SW 13.6 0.0 0.6
19:45 11.6 11.5 99 1020.9 14.5 SW 14.5 0.0 0.6
19:46 11.6 11.5 99 1020.8 11.4 W 14.5 0.0 0.6
19:47 11.6 11.5 99 1020.9 9.8 S 14.5 0.0 0.6
19:48 11.6 11.5 99 1020.9 9.8 SW 14.5 0.0 0.6
19:49 11.6 11.5 99 1020.9 7.6 S 14.5 0.0 0.6
19:50 11.6 11.5 99 1020.8 12.1 SW 14.5 0.0 0.6
19:51 11.6 11.5 99 1020.8 13.0 SW 14.5 0.0 0.6
19:52 11.7 11.6 99 1020.8 9.8 S 14.5 0.0 0.6
19:53 11.7 11.6 99 1020.9 9.8 SW 14.5 0.0 0.6
19:54 11.7 11.6 99 1020.8 9.8 SW 14.5 0.0 0.6
19:54 11.7 11.6 99 1020.8 9.8 SW 14.5 0.0 0.6
19:56 11.6 11.5 99 1020.7 10.7 SE 13.0 0.0 0.6
19:57 11.7 11.6 99 1020.7 10.7 SW 13.0 0.0 0.6
19:58 11.7 11.6 99 1020.9 9.2 S 13.0 0.0 0.6
19:59 11.7 11.6 99 1020.8 9.2 S 13.0 0.0 0.6
20:00 11.7 11.6 99 1020.7 10.7 SW 13.0 0.0 0.6
20:01 11.7 11.6 99 1020.8 10.7 SW 12.1 0.0 0.6
20:02 11.7 11.6 99 1020.7 10.7 SW 12.1 0.0 0.6
20:03 11.7 11.6 99 1020.9 10.7 SW 12.1 0.0 0.6
20:04 11.7 11.6 99 1020.7 10.7 SW 12.1 0.0 0.6
20:05 11.7 11.6 99 1020.7 11.4 SW 12.1 0.0 0.6
20:05 11.7 11.6 99 1020.7 11.4 SW 12.1 0.0 0.6
20:07 11.7 11.6 99 1020.7 11.4 SW 12.1 0.0 0.6
20:07 11.7 11.6 99 1020.7 11.4 SW 12.1 0.0 0.6
20:08 11.7 11.6 99 1020.7 11.4 S 12.1 0.0 0.6
20:10 11.7 11.6 99 1020.9 7.6 SW 11.4 0.0 0.6
20:10 11.7 11.6 99 1020.9 7.6 SW 11.4 0.0 0.6
20:12 11.7 11.6 99 1020.7 9.2 SW 11.4 0.0 0.6
20:12 11.7 11.6 99 1020.7 9.2 SW 11.4 0.0 0.6
20:14 11.7 11.6 99 1020.8 10.7 WNW 11.4 0.0 0.6
20:15 11.7 11.6 99 1020.8 9.2 SW 12.1 0.0 0.6
20:15 11.7 11.6 99 1020.8 9.2 SW 12.1 0.0 0.6
20:17 11.8 11.7 99 1020.9 10.7 S 12.1 0.0 0.6
20:18 11.8 11.7 99 1020.9 10.7 S 12.1 0.0 0.6
20:19 11.8 11.7 99 1020.8 10.7 S 12.1 0.0 0.6
20:19 11.8 11.7 99 1020.8 10.7 S 12.1 0.0 0.6
20:20 11.8 11.7 99 1020.8 10.7 S 12.1 0.0 0.6
20:22 11.8 11.7 99 1020.8 10.7 S 12.1 0.0 0.6
20:23 11.8 11.7 99 1020.7 10.7 S 12.1 0.0 0.6
20:24 11.8 11.7 99 1020.9 10.7 SW 12.1 0.0 0.6
20:25 11.8 11.7 99 1020.8 9.8 SW 10.7 0.0 0.6
20:26 11.8 11.7 99 1020.8 9.8 SW 10.7 0.0 0.6
20:27 11.8 11.7 99 1020.6 9.2 S 10.7 0.0 0.6
20:28 11.8 11.7 99 1020.7 9.2 SW 10.7 0.0 0.6
20:29 11.8 11.7 99 1020.6 7.6 SW 10.7 0.0 0.6
20:29 11.8 11.7 99 1020.6 7.6 SW 10.7 0.0 0.6
20:31 11.8 11.7 99 1020.7 8.3 SW 10.7 0.0 0.6
20:32 11.8 11.7 99 1020.7 6.0 SW 10.7 0.0 0.6
20:33 11.8 11.7 99 1020.7 6.9 S 10.7 0.0 0.6
20:34 11.8 11.7 99 1020.7 7.6 S 10.7 0.0 0.6
20:35 11.8 11.7 99 1020.7 6.0 SW 10.7 0.0 0.6
20:36 11.8 11.7 99 1020.7 7.6 W 10.7 0.0 0.6
20:37 11.8 11.7 99 1020.7 6.9 SW 10.7 0.0 0.6
20:38 11.8 11.7 99 1020.5 5.4 SW 10.7 0.0 0.6
20:39 11.8 11.7 99 1020.6 6.9 SW 8.3 0.0 0.6
20:39 11.8 11.7 99 1020.6 6.9 SW 8.3 0.0 0.6
20:41 11.8 11.7 99 1020.5 6.9 S 7.6 0.0 0.6
20:42 11.8 11.7 99 1020.6 6.0 SW 7.6 0.0 0.6
20:43 11.8 11.7 99 1020.5 7.6 NW 7.6 0.0 0.6
20:44 11.8 11.7 99 1020.5 6.9 SW 8.3 0.0 0.6
20:45 11.8 11.7 99 1020.5 10.7 SW 10.7 0.0 0.6
20:46 11.9 11.8 99 1020.4 7.6 S 10.7 0.0 0.6
20:47 11.9 11.8 99 1020.5 7.6 S 10.7 0.0 0.6
20:47 11.9 11.8 99 1020.5 7.6 S 10.7 0.0 0.6
20:48 11.9 11.8 99 1020.5 6.9 SW 10.7 0.0 0.6
20:50 11.9 11.8 99 1020.6 8.3 S 10.7 0.0 0.6
20:51 11.9 11.8 99 1020.5 7.6 SW 10.7 0.0 0.6
20:52 11.9 11.8 99 1020.6 7.6 S 10.7 0.0 0.6
20:53 11.9 11.8 99 1020.7 9.2 S 10.7 0.0 0.6
20:54 11.9 11.8 99 1020.7 7.6 S 10.7 0.0 0.6
20:55 11.9 11.8 99 1020.6 6.9 S 10.7 0.0 0.6
20:56 11.9 11.8 99 1020.5 10.7 SW 10.7 0.0 0.6
20:57 11.9 11.8 99 1020.7 14.5 S 14.5 0.0 0.6
20:57 11.9 11.8 99 1020.7 14.5 S 14.5 0.0 0.6
20:58 11.9 11.8 99 1020.6 8.3 SW 14.5 0.0 0.6
21:00 11.9 11.8 99 1020.8 9.2 SW 14.5 0.0 0.6
21:01 11.9 11.8 99 1020.7 9.2 SW 14.5 0.0 0.6
21:02 11.9 11.8 99 1020.7 9.2 SW 14.5 0.0 0.6
21:03 11.9 11.8 99 1020.8 9.2 SW 14.5 0.0 0.6
21:04 11.9 11.8 99 1020.8 9.2 SW 14.5 0.0 0.6
21:05 12.0 11.9 99 1020.6 6.9 SW 14.5 0.0 0.6
21:06 12.0 11.9 99 1020.7 9.8 SW 14.5 0.0 0.6
21:06 12.0 11.9 99 1020.7 9.8 SW 14.5 0.0 0.6
21:08 12.0 11.9 99 1020.7 10.7 W 10.7 0.8 0.6
21:09 12.0 11.9 99 1020.7 6.9 SW 10.7 0.8 0.6
21:09 12.0 11.9 99 1020.7 6.9 SW 10.7 0.8 0.6
21:11 12.0 11.9 99 1020.7 6.9 SW 10.7 0.8 0.7
21:11 12.0 11.9 99 1020.7 6.9 SW 10.7 0.8 0.7
21:13 12.0 11.9 99 1020.7 8.3 S 10.7 0.8 0.7
21:14 12.0 11.9 99 1020.6 8.3 SW 10.7 0.8 0.7
21:14 12.0 11.9 99 1020.6 8.3 SW 10.7 0.8 0.7
21:16 12.1 12.0 99 1020.7 9.2 SE 10.7 1.5 0.8
21:17 12.1 12.0 99 1020.5 8.3 S 10.7 0.8 0.8
21:18 12.1 12.0 99 1020.6 7.6 S 10.7 0.8 0.8
21:19 12.0 11.9 99 1020.6 7.6 SW 10.7 0.8 0.8
21:20 12.0 11.9 99 1020.5 12.1 S 12.1 1.5 0.8
21:21 12.1 12.0 99 1020.7 10.7 S 12.1 0.8 0.8
21:22 12.0 11.9 99 1020.5 9.2 SW 12.1 0.8 0.9
21:22 12.0 11.9 99 1020.5 9.2 SW 12.1 0.8 0.9
21:24 12.1 12.0 99 1020.7 9.2 S 12.1 1.5 0.9
21:25 12.1 12.0 99 1020.5 8.3 S 12.1 0.8 0.9
21:26 12.0 11.9 99 1020.6 7.6 S 12.1 0.8 0.9
21:27 12.0 11.9 99 1020.6 10.7 S 12.1 0.8 0.9
21:28 12.0 11.9 99 1020.6 9.2 S 12.1 0.0 0.9
21:29 12.0 11.9 99 1020.5 12.1 NW 12.1 0.8 0.9
21:30 12.0 11.9 99 1020.5 8.3 S 12.1 0.8 0.9
21:31 12.0 11.9 99 1020.5 6.0 S 12.1 0.8 0.9
21:32 12.0 11.9 99 1020.6 8.3 S 12.1 1.5 1.0
21:32 12.0 11.9 99 1020.6 8.3 S 12.1 1.5 1.0
21:34 12.0 11.9 99 1020.5 9.2 S 12.1 0.8 1.0
21:35 12.0 11.9 99 1020.4 7.6 S 12.1 0.8 1.0
21:36 12.0 11.9 99 1020.6 7.6 S 12.1 1.5 1.1
21:37 12.0 11.9 99 1020.5 8.3 S 12.1 0.8 1.1
21:38 12.0 11.9 99 1020.6 6.9 S 12.1 0.8 1.1
21:39 12.0 11.9 99 1020.7 9.2 S 12.1 0.8 1.1
21:40 12.0 11.9 99 1020.5 8.3 S 9.8 1.5 1.1
21:41 12.0 11.9 99 1020.6 7.6 S 9.8 0.8 1.1
21:41 12.0 11.9 99 1020.6 7.6 S 9.8 0.8 1.1
21:42 12.0 11.9 99 1020.5 5.4 S 9.8 0.8 1.1
21:44 12.0 11.9 99 1020.4 6.0 N 9.8 1.5 1.2
21:45 12.0 11.9 99 1020.6 7.6 N 9.8 0.8 1.2
21:46 12.0 11.9 99 1020.5 8.3 N 9.8 0.8 1.2
21:47 12.0 11.9 99 1020.6 6.0 S 9.8 0.8 1.2
21:47 12.0 11.9 99 1020.6 6.0 S 9.8 0.8 1.2
21:48 12.0 11.9 99 1020.4 5.4 S 9.8 1.5 1.3
21:50 12.0 11.9 99 1020.4 6.0 S 8.3 0.8 1.3
21:51 12.0 11.9 99 1020.5 7.6 S 8.3 0.8 1.3
21:52 12.0 11.9 99 1020.2 6.0 S 8.3 0.8 1.3
21:53 12.0 11.9 99 1020.5 5.4 SE 8.3 0.0 1.3
21:54 12.0 11.9 99 1020.4 6.9 S 8.3 0.8 1.3
21:55 12.0 11.9 99 1020.3 6.0 S 8.3 0.8 1.3
21:56 12.0 11.9 99 1020.5 5.4 S 7.6 0.8 1.3
21:56 12.0 11.9 99 1020.5 5.4 S 7.6 0.8 1.3
21:58 12.0 11.9 99 1020.2 5.4 S 7.6 1.5 1.4
21:59 12.0 11.9 99 1020.2 6.0 S 7.6 0.8 1.4
22:00 12.0 11.9 99 1020.3 4.5 S 7.6 0.8 1.4
22:01 12.0 11.9 99 1020.4 4.5 S 7.6 0.8 1.4
22:02 12.0 11.9 99 1020.3 4.5 S 6.9 0.8 1.4
22:03 12.0 11.9 99 1020.4 4.5 S 6.9 0.0 1.4
22:04 12.0 11.9 99 1020.4 4.5 S 6.9 0.0 1.4
22:05 12.0 11.9 99 1020.4 5.4 S 6.0 0.0 1.4
22:05 12.0 11.9 99 1020.4 5.4 S 6.0 0.0 1.4
22:06 12.0 11.9 99 1020.3 5.4 N 6.0 0.0 1.4
22:08 12.0 11.9 99 1020.3 6.0 S 6.0 0.0 1.4
22:08 12.0 11.9 99 1020.3 6.0 S 6.0 0.0 1.4
22:10 12.0 11.9 99 1020.5 5.4 N 6.0 0.8 1.4
22:10 12.0 11.9 99 1020.5 5.4 N 6.0 0.8 1.4
22:11 12.0 11.9 99 1020.5 6.0 N 6.0 0.8 1.4
22:13 12.0 11.9 99 1020.4 5.4 SE 6.9 0.8 1.4
22:13 12.0 11.9 99 1020.4 5.4 SE 6.9 0.8 1.4
22:14 12.0 11.9 99 1020.4 6.9 S 6.9 0.0 1.4
22:16 12.0 11.9 99 1020.4 3.8 S 6.9 0.0 1.4
22:16 12.0 11.9 99 1020.4 3.8 S 6.9 0.0 1.4
22:18 12.0 11.9 99 1020.4 5.4 S 6.9 0.8 1.5
22:19 12.0 11.9 99 1020.4 7.6 S 7.6 0.8 1.5
22:20 12.0 11.9 99 1020.4 6.9 S 7.6 0.8 1.5
22:21 12.1 12.0 99 1020.4 6.0 S 7.6 0.8 1.5
22:22 12.1 12.0 99 1020.4 4.5 S 7.6 0.0 1.5
22:23 12.1 12.0 99 1020.3 6.9 S 7.6 0.0 1.5
22:24 12.1 12.0 99 1020.2 6.9 S 7.6 0.0 1.5
22:25 12.1 12.0 99 1020.3 6.0 SE 7.6 0.0 1.5
22:26 12.1 12.0 99 1020.2 6.9 S 7.6 0.0 1.5
22:26 12.1 12.0 99 1020.2 6.9 S 7.6 0.0 1.5
22:27 12.1 12.0 99 1020.3 7.6 S 7.6 0.0 1.5
22:29 12.1 12.0 99 1020.3 6.0 S 7.6 0.0 1.5
22:30 12.1 12.0 99 1020.2 8.3 S 8.3 0.0 1.5
22:31 12.1 12.0 99 1020.1 6.9 S 8.3 0.0 1.5
22:32 12.1 12.0 99 1020.1 8.3 S 8.3 0.0 1.5
22:33 12.1 12.0 99 1020.2 9.2 S 9.2 0.8 1.6
22:34 12.1 12.0 99 1020.2 5.4 S 9.2 1.5 1.6
22:35 12.1 12.0 99 1020.2 6.0 WSW 9.2 1.5 1.6
22:36 12.1 12.0 99 1020.1 8.3 N 9.2 2.3 1.7
22:37 12.1 12.0 99 1020.2 6.0 WSW 9.2 2.3 1.7
22:37 12.1 12.0 99 1020.2 6.0 WSW 9.2 2.3 1.7
22:38 12.1 12.0 99 1020.1 13.0 WSW 13.0 1.5 1.7
22:40 12.1 12.0 99 1020.1 8.3 W 13.0 1.5 1.8
22:41 12.1 12.0 99 1019.9 9.8 WNW 13.0 0.8 1.8
22:42 12.1 12.0 99 1020.0 11.4 S 13.0 0.8 1.8
22:43 12.1 12.0 99 1020.0 11.4 S 13.0 0.8 1.8
22:44 12.1 12.0 99 1020.0 6.9 S 13.0 1.5 1.8
22:45 12.1 12.0 99 1020.1 10.7 S 13.0 0.8 1.8
22:46 12.1 12.0 99 1020.0 10.7 S 13.0 0.8 1.8
22:47 12.2 12.1 99 1020.0 15.9 S 15.9 0.8 1.8
22:48 12.2 12.1 99 1020.0 13.0 S 15.9 0.8 1.8
22:48 12.2 12.1 99 1020.0 13.0 S 15.9 0.8 1.8
22:49 12.2 12.1 99 1020.0 12.1 W 15.9 0.0 1.8
22:51 12.2 12.1 99 1020.0 10.7 N 15.9 0.0 1.8
22:52 12.2 12.1 99 1020.0 6.9 N 15.9 0.0 1.8
22:53 12.2 12.1 99 1019.9 7.6 WSW 15.9 0.0 1.8
22:54 12.2 12.1 99 1019.9 10.7 WSW 15.9 0.0 1.8
22:55 12.2 12.1 99 1020.0 13.6 S 15.9 0.0 1.8
22:56 12.2 12.1 99 1020.0 10.7 S 15.9 0.0 1.8
22:57 12.2 12.1 99 1020.0 11.4 WSW 13.6 0.0 1.8
22:58 12.2 12.1 99 1019.9 13.6 WSW 13.6 0.0 1.8
22:59 12.2 12.1 99 1019.9 13.6 S 13.6 0.0 1.8
23:00 12.3 12.2 99 1020.0 13.0 S 13.6 0.0 1.8
23:00 12.3 12.2 99 1020.0 13.0 S 13.6 0.0 1.8
23:02 12.3 12.2 99 1019.9 13.0 S 13.6 0.0 1.8
23:03 12.3 12.2 99 1020.0 13.0 S 13.6 0.0 1.8
23:04 12.3 12.2 99 1019.9 13.0 S 13.6 0.0 1.8
23:05 12.3 12.2 99 1020.0 12.1 S 13.6 0.0 1.8
23:06 12.3 12.2 99 1019.9 11.4 W 13.6 0.0 1.8
23:06 12.3 12.2 99 1019.9 11.4 W 13.6 0.0 1.8
23:08 12.3 12.2 99 1020.0 13.6 S 13.6 0.0 1.8
23:08 12.3 12.2 99 1020.0 13.6 S 13.6 0.0 1.8
23:10 12.3 12.2 99 1019.7 11.4 WSW 13.6 0.0 1.8
23:11 12.3 12.2 99 1019.9 11.4 WSW 13.6 0.0 1.8
23:11 12.3 12.2 99 1019.9 11.4 WSW 13.6 0.0 1.8
23:13 12.3 12.2 99 1019.9 10.7 SE 13.6 0.0 1.8
23:14 12.3 12.2 99 1019.9 10.7 S 13.6 0.0 1.8
23:14 12.3 12.2 99 1019.9 10.7 S 13.6 0.0 1.8
23:16 12.3 12.2 99 1020.0 12.1 S 13.6 0.0 1.8
23:16 12.3 12.2 99 1020.0 12.1 S 13.6 0.0 1.8
23:18 12.3 12.2 99 1019.8 11.4 S 13.6 0.0 1.8
23:19 12.3 12.2 99 1019.8 13.6 S 13.6 0.0 1.8
23:20 12.3 12.2 99 1019.7 9.2 SE 13.6 0.0 1.8
23:21 12.3 12.2 99 1019.7 9.8 WSW 13.6 0.0 1.8
23:22 12.4 12.3 99 1019.7 10.7 S 13.6 0.0 1.8
23:22 12.4 12.3 99 1019.7 10.7 S 13.6 0.0 1.8
23:23 12.4 12.3 99 1019.7 10.7 S 13.6 0.0 1.8
23:24 12.3 12.2 99 1019.7 9.8 S 13.6 0.0 1.8
23:26 12.4 12.3 99 1019.8 11.4 WSW 13.6 0.0 1.8
23:27 12.4 12.3 99 1019.7 10.7 S 13.6 0.0 1.8
23:28 12.4 12.3 99 1019.7 13.0 S 13.6 0.0 1.8
23:29 12.3 12.2 99 1019.7 11.4 S 13.6 0.0 1.8
23:30 12.4 12.3 99 1019.7 9.2 WSW 13.0 0.0 1.8
23:31 12.4 12.3 99 1019.8 9.8 WSW 13.0 0.0 1.8
23:32 12.4 12.3 99 1019.7 13.0 S 14.5 0.8 1.9
23:32 12.4 12.3 99 1019.7 13.0 S 14.5 0.8 1.9
23:33 12.4 12.3 99 1019.7 12.1 S 14.5 0.8 1.9
23:34 12.4 12.3 99 1019.7 10.7 WSW 14.5 0.8 1.9
23:36 12.4 12.3 99 1019.7 9.8 S 14.5 0.8 1.9
23:37 12.4 12.3 99 1019.7 13.0 S 14.5 0.0 1.9
23:38 12.4 12.3 99 1019.7 9.2 S 14.5 0.0 1.9
23:39 12.4 12.3 99 1019.5 9.2 WNW 14.5 0.0 1.9
23:40 12.4 12.3 99 1019.7 7.6 S 14.5 0.0 1.9
23:41 12.4 12.3 99 1019.7 10.7 S 14.5 0.0 1.9
23:41 12.4 12.3 99 1019.7 10.7 S 14.5 0.0 1.9
23:42 12.4 12.3 99 1019.5 10.7 WSW 13.0 0.0 1.9
23:43 12.4 12.3 99 1019.6 10.7 S 13.0 0.0 1.9
23:45 12.4 12.3 99 1019.7 6.9 S 13.0 0.0 1.9
23:46 12.4 12.3 99 1019.6 7.6 S 13.0 0.0 1.9
23:47 12.3 12.2 99 1019.7 8.3 S 12.1 0.0 1.9
23:48 12.4 12.3 99 1019.6 9.2 SW 12.1 0.0 1.9
23:49 12.4 12.3 99 1019.5 13.0 S 13.0 0.0 1.9
23:50 12.4 12.3 99 1019.5 13.0 S 13.0 0.0 1.9
23:51 12.3 12.2 99 1019.6 10.7 S 13.0 0.0 1.9
23:51 12.3 12.2 99 1019.6 10.7 S 13.0 0.0 1.9
23:52 12.3 12.2 99 1019.5 10.7 S 13.0 0.0 1.9
23:53 12.4 12.3 99 1019.4 9.8 S 13.0 0.0 1.9
23:55 12.4 12.3 99 1019.6 8.3 S 13.0 0.8 2.0
23:56 12.3 12.2 99 1019.6 9.8 S 13.0 0.8 2.0
23:57 12.4 12.3 99 1019.5 9.8 S 13.0 0.8 2.0
23:57 12.4 12.3 99 1019.5 9.8 S 13.0 0.8 2.0
23:58 12.3 12.2 99 1019.5 9.8 S 13.0 0.8 2.0
23:58 12.3 12.2 99 1019.5 9.8 S 13.0 0.8 2.0

UK - WEATHER STATION TOPSITES - UK World Weather Websites

This is a private weather station, never base important decisions or events on data from this weather station. Although every effort has been made to make the data as accurate as possible it does not meet MetOffice standards. It is proved as a guide of local weather conditions. We accept no liability for any loss which may arise from use of the data.

Copyright © Carnkie Weather 2009 - 2017.